[{"header": {"parameterCategory": 1, "parameterNumber": 2, "dx": 0.06612293990616946, "dy": 0.0552356325346848, "nx": 98, "ny": 59, "la1": 35.046912555036876, "la2": 31.78801023549047, "lo1": -121.43107172385933, "lo2": -114.95102361305473, "refTime": "2026042400"}, "data": [17.88, 17.88, 17.88, 17.88, 17.43, 17.43, 17.43, 17.43, 17.43, 17.43, 17.43, 16.99, 16.99, 16.99, 16.99, 16.99, 16.99, 16.99, 16.99, 16.99, 16.99, 16.99, 16.99, 17.43, 17.43, 17.43, 17.43, 17.43, 17.43, 17.43, 17.43, 16.99, 16.99, 16.99, 16.54, 16.54, 16.54, 16.99, 16.99, 16.99, 16.99, 16.54, 16.09, 15.65, 15.2, 15.2, 15.65, 15.65, 15.65, 16.09, 16.09, 16.09, 16.54, 16.54, 16.99, 16.54, 16.54, 16.54, 16.54, 16.54, 16.54, 16.54, 16.99, 16.99, 17.43, 17.43, 17.43, 17.43, 17.43, 17.43, 17.43, 17.43, 17.43, 17.43, 17.43, 17.43, 17.43, 17.43, 17.43, 17.43, 17.43, 17.43, 17.43, 17.43, 17.43, 17.43, 17.43, 17.43, 17.43, 17.43, 17.88, 17.88, 18.33, 18.78, 19.22, 19.22, 19.67, 19.67, 18.33, 17.88, 17.88, 17.88, 17.88, 17.43, 17.43, 17.43, 17.43, 17.43, 17.43, 17.43, 17.43, 16.99, 16.99, 16.99, 16.99, 16.99, 16.99, 16.99, 17.43, 17.43, 17.43, 17.43, 17.88, 17.88, 17.88, 17.88, 17.88, 17.43, 17.43, 17.43, 16.99, 16.99, 16.99, 16.99, 16.99, 16.99, 17.43, 17.43, 16.99, 16.54, 16.09, 15.65, 15.65, 15.65, 15.65, 16.09, 16.09, 16.54, 16.54, 16.54, 16.99, 16.99, 16.99, 16.99, 16.54, 16.54, 16.54, 16.54, 16.54, 16.99, 16.99, 17.43, 17.43, 17.43, 17.43, 17.43, 17.43, 17.43, 17.43, 17.43, 16.99, 16.99, 17.43, 17.43, 17.43, 17.43, 17.43, 17.43, 17.43, 17.43, 17.43, 17.43, 17.43, 17.43, 17.43, 17.43, 17.43, 17.43, 17.88, 17.88, 18.33, 18.78, 19.22, 19.22, 19.67, 19.67, 18.33, 17.88, 17.88, 17.88, 17.88, 17.88, 17.43, 17.43, 17.43, 17.43, 17.43, 17.43, 17.43, 17.43, 16.99, 16.99, 16.99, 17.43, 17.43, 17.43, 17.43, 17.88, 17.88, 17.88, 17.88, 17.88, 17.88, 17.88, 17.88, 17.88, 17.43, 17.43, 17.43, 17.43, 16.99, 16.99, 17.43, 17.43, 17.88, 17.88, 16.99, 16.54, 16.09, 15.65, 15.65, 16.09, 16.09, 16.54, 16.54, 16.99, 16.99, 16.99, 16.99, 16.99, 16.99, 16.99, 16.99, 16.99, 16.99, 16.99, 16.99, 16.99, 17.43, 17.43, 17.43, 17.88, 17.88, 17.88, 17.43, 17.43, 17.43, 16.99, 16.99, 17.43, 17.43, 17.43, 17.88, 17.43, 17.88, 17.88, 17.88, 17.88, 17.88, 17.88, 17.88, 17.43, 17.43, 17.88, 17.43, 17.43, 17.88, 18.33, 18.33, 18.78, 19.22, 19.22, 19.67, 19.22, 18.33, 17.88, 17.88, 17.88, 17.88, 17.88, 17.88, 17.43, 17.43, 17.43, 17.43, 17.43, 17.43, 17.43, 17.43, 17.43, 17.43, 17.43, 17.43, 17.43, 17.88, 17.88, 18.33, 18.33, 18.33, 18.33, 18.33, 17.88, 17.88, 17.88, 17.43, 17.43, 17.43, 17.43, 17.43, 17.43, 17.88, 17.88, 17.88, 17.43, 16.99, 16.54, 16.09, 16.09, 16.54, 16.54, 16.54, 16.99, 16.99, 16.99, 17.43, 17.43, 17.43, 17.43, 17.43, 16.99, 16.99, 16.99, 16.99, 17.43, 17.43, 17.43, 17.88, 17.88, 17.88, 17.88, 17.88, 17.88, 17.43, 17.43, 16.99, 16.99, 16.99, 17.43, 17.43, 17.88, 18.33, 18.33, 18.33, 18.78, 18.33, 18.33, 18.33, 18.33, 18.33, 17.88, 17.88, 17.88, 17.43, 17.88, 18.33, 18.33, 18.78, 18.78, 19.22, 19.22, 19.22, 19.22, 18.33, 17.88, 17.88, 17.88, 17.88, 17.88, 17.88, 17.88, 17.88, 17.43, 17.43, 17.43, 17.43, 17.43, 17.43, 17.43, 17.43, 17.88, 17.88, 17.88, 18.33, 18.33, 18.33, 18.33, 18.33, 18.33, 18.33, 18.33, 17.88, 17.88, 17.88, 17.88, 17.88, 17.88, 17.88, 17.88, 18.33, 17.88, 17.88, 17.43, 16.99, 16.54, 16.54, 16.54, 16.54, 16.99, 16.99, 16.99, 17.43, 17.43, 17.43, 17.43, 17.43, 17.43, 17.43, 17.43, 17.43, 17.43, 17.43, 17.43, 17.88, 17.88, 17.88, 18.33, 17.88, 17.88, 17.88, 17.43, 17.43, 16.99, 16.99, 16.99, 16.99, 17.43, 17.88, 18.33, 18.78, 18.78, 19.22, 19.22, 19.22, 18.78, 18.78, 18.78, 18.78, 18.33, 17.88, 17.88, 17.88, 17.88, 18.33, 18.33, 18.78, 19.22, 19.22, 19.22, 19.22, 19.22, 18.33, 17.88, 17.88, 17.88, 17.88, 17.88, 17.88, 17.88, 17.88, 17.88, 17.43, 17.43, 17.43, 17.43, 17.88, 17.88, 17.88, 17.88, 17.88, 18.33, 18.33, 18.33, 18.33, 18.78, 18.78, 18.78, 18.78, 18.33, 17.88, 17.88, 17.88, 18.33, 18.33, 18.33, 18.33, 18.33, 18.33, 18.33, 17.43, 16.99, 16.99, 16.99, 16.99, 16.99, 16.99, 16.99, 16.99, 16.99, 17.43, 17.43, 17.43, 17.43, 17.43, 17.43, 17.43, 17.43, 17.43, 17.43, 17.43, 17.43, 17.88, 17.88, 18.33, 18.33, 18.33, 17.88, 17.43, 17.43, 16.99, 16.99, 16.99, 16.99, 17.43, 17.88, 18.33, 18.78, 19.22, 19.22, 19.22, 19.67, 19.22, 19.22, 18.78, 18.78, 18.78, 18.33, 17.88, 17.88, 17.88, 18.33, 18.33, 18.33, 19.22, 19.67, 19.22, 19.22, 19.22, 19.22, 18.33, 17.88, 17.88, 17.88, 17.88, 17.88, 17.88, 17.88, 17.88, 17.88, 17.88, 17.88, 17.88, 17.88, 17.88, 17.88, 17.88, 18.33, 18.33, 18.33, 18.33, 18.78, 18.78, 18.78, 19.22, 19.22, 18.78, 18.33, 18.33, 17.88, 18.33, 18.33, 18.78, 18.33, 18.33, 18.33, 18.78, 18.33, 17.43, 16.99, 16.99, 16.99, 16.99, 17.43, 17.43, 16.99, 16.99, 16.99, 16.99, 16.99, 16.99, 17.43, 17.43, 17.43, 17.43, 17.43, 17.43, 17.43, 17.43, 17.43, 17.88, 18.33, 18.33, 18.33, 17.88, 17.43, 16.99, 16.99, 16.99, 16.54, 16.99, 17.43, 17.43, 17.88, 18.78, 19.22, 19.67, 19.67, 19.67, 19.22, 19.67, 19.22, 19.22, 18.78, 18.78, 18.33, 18.33, 17.88, 17.88, 18.33, 18.33, 18.78, 19.22, 19.22, 19.22, 19.22, 19.22, 19.22, 18.33, 17.88, 17.88, 17.88, 17.88, 17.88, 17.88, 17.88, 17.88, 17.88, 17.88, 17.88, 17.88, 17.88, 18.33, 18.33, 18.33, 18.33, 18.78, 18.78, 18.78, 18.78, 18.78, 19.22, 19.22, 19.22, 18.78, 18.78, 18.33, 18.33, 18.33, 18.78, 18.78, 18.33, 18.33, 18.78, 18.78, 18.78, 17.88, 16.99, 16.99, 17.43, 17.43, 17.43, 17.43, 17.43, 16.99, 16.99, 16.99, 17.43, 17.43, 17.43, 17.43, 17.88, 17.88, 17.43, 17.43, 17.43, 17.43, 17.88, 17.88, 18.33, 18.33, 18.33, 17.88, 16.99, 16.54, 16.54, 16.99, 16.99, 17.43, 17.88, 17.88, 18.33, 19.22, 19.22, 19.67, 19.67, 19.67, 19.22, 19.67, 19.67, 19.22, 19.22, 18.78, 18.78, 18.33, 18.33, 17.88, 18.33, 18.33, 18.78, 19.22, 19.22, 19.22, 19.22, 19.22, 19.22, 18.33, 18.33, 18.33, 18.33, 18.33, 18.33, 17.88, 17.88, 17.88, 17.88, 17.88, 17.88, 18.33, 18.33, 18.33, 18.33, 18.78, 18.78, 18.78, 18.78, 18.78, 19.22, 19.22, 19.22, 19.22, 19.22, 18.78, 18.78, 18.78, 18.78, 18.78, 18.78, 18.78, 18.33, 18.78, 18.78, 19.22, 18.78, 18.33, 17.43, 17.43, 17.43, 17.43, 17.88, 17.88, 17.88, 17.43, 17.43, 17.43, 17.88, 17.88, 17.88, 17.88, 17.88, 17.88, 17.88, 17.88, 17.88, 17.88, 17.88, 18.33, 18.78, 18.78, 17.88, 17.43, 16.99, 16.54, 16.99, 17.43, 17.43, 17.88, 18.33, 18.33, 18.78, 19.22, 19.67, 19.67, 19.67, 19.67, 19.67, 19.67, 19.67, 19.22, 19.22, 18.78, 18.78, 18.33, 18.33, 18.33, 18.33, 18.78, 18.78, 19.22, 18.78, 18.78, 19.22, 19.22, 19.67, 18.33, 18.33, 18.33, 18.33, 18.33, 18.33, 18.33, 18.33, 18.33, 18.33, 18.33, 18.33, 18.33, 18.33, 18.33, 18.78, 18.78, 18.78, 18.78, 19.22, 19.22, 19.22, 19.22, 19.67, 19.67, 19.22, 19.22, 18.78, 18.78, 19.22, 19.22, 18.78, 18.78, 18.33, 18.78, 18.78, 19.22, 18.78, 18.78, 18.33, 17.88, 17.88, 17.88, 17.88, 17.88, 17.88, 17.88, 17.88, 17.88, 18.33, 18.33, 17.88, 17.88, 17.88, 17.88, 17.88, 17.88, 17.88, 18.33, 18.33, 18.78, 18.78, 18.33, 17.43, 16.99, 16.99, 16.99, 17.43, 17.88, 17.88, 18.33, 18.33, 18.78, 19.22, 19.22, 19.67, 19.67, 19.67, 20.12, 20.12, 20.12, 19.67, 19.22, 19.22, 18.78, 18.78, 18.78, 18.78, 18.78, 18.78, 18.78, 18.78, 19.22, 19.22, 18.78, 19.22, 19.67, 19.67, 18.33, 18.33, 18.33, 18.33, 18.33, 18.33, 18.33, 18.33, 18.33, 18.33, 18.33, 18.33, 18.33, 18.78, 18.78, 18.78, 18.78, 19.22, 19.22, 19.22, 19.22, 19.67, 19.67, 19.67, 19.67, 19.22, 19.22, 19.22, 19.22, 19.22, 19.22, 18.78, 18.78, 18.78, 18.78, 18.78, 18.78, 19.22, 18.78, 18.78, 18.33, 18.33, 17.88, 17.88, 17.88, 18.33, 18.33, 18.33, 18.33, 18.33, 18.33, 18.33, 18.33, 17.88, 17.88, 17.88, 17.88, 18.33, 18.33, 18.78, 18.78, 18.78, 17.88, 17.43, 17.43, 17.43, 17.88, 17.88, 18.33, 18.33, 18.33, 18.78, 19.22, 19.67, 19.67, 19.67, 19.67, 19.67, 20.12, 20.12, 20.12, 20.12, 19.67, 19.22, 18.78, 18.78, 18.78, 18.78, 18.78, 19.22, 19.22, 19.22, 19.22, 19.22, 19.22, 19.22, 19.67, 19.67, 18.33, 18.33, 18.33, 18.33, 18.33, 18.33, 18.33, 18.33, 18.33, 18.33, 18.33, 18.33, 18.78, 18.78, 18.78, 18.78, 19.22, 19.22, 19.22, 19.22, 19.22, 19.67, 19.67, 19.67, 19.22, 19.22, 19.22, 19.22, 19.22, 19.22, 19.22, 18.78, 18.78, 18.78, 18.78, 18.78, 18.78, 18.78, 18.78, 18.78, 18.33, 18.33, 18.33, 18.33, 18.33, 18.33, 18.33, 18.33, 18.33, 18.33, 18.33, 18.33, 18.33, 18.33, 18.33, 18.33, 18.33, 18.33, 18.78, 19.22, 18.78, 18.33, 17.88, 17.88, 18.33, 18.33, 18.33, 18.33, 18.33, 18.33, 18.78, 19.22, 19.22, 19.67, 19.67, 19.67, 19.67, 19.67, 19.67, 20.12, 20.12, 20.12, 20.12, 19.67, 19.22, 19.22, 18.78, 18.78, 18.78, 19.22, 19.22, 19.67, 19.67, 19.67, 19.67, 19.67, 19.67, 19.67, 18.33, 18.33, 18.33, 18.33, 18.33, 18.33, 18.33, 18.33, 18.33, 18.33, 18.33, 18.33, 18.78, 18.78, 18.78, 18.78, 19.22, 19.22, 19.22, 19.22, 19.22, 19.22, 19.22, 19.22, 19.22, 19.22, 19.22, 19.22, 19.22, 19.22, 19.22, 19.22, 18.78, 18.78, 18.78, 18.78, 18.78, 18.78, 18.78, 18.78, 18.78, 18.78, 18.78, 18.33, 18.33, 18.33, 18.33, 18.33, 18.78, 18.78, 18.78, 18.78, 18.78, 18.78, 18.78, 18.78, 18.78, 19.22, 19.22, 19.22, 18.78, 18.33, 18.33, 18.78, 18.78, 18.78, 18.78, 18.33, 18.33, 18.78, 18.78, 19.22, 19.67, 19.67, 19.67, 19.67, 19.67, 19.67, 19.67, 19.67, 20.12, 20.12, 20.12, 20.56, 20.12, 19.67, 19.22, 18.78, 18.33, 18.78, 19.22, 19.67, 20.12, 19.67, 19.67, 19.67, 19.67, 19.67, 18.33, 18.33, 18.33, 18.33, 18.33, 18.33, 18.33, 18.33, 18.33, 18.33, 18.33, 18.33, 18.78, 18.78, 18.78, 18.78, 18.78, 19.22, 19.22, 19.22, 19.22, 19.22, 19.22, 19.22, 19.22, 19.22, 19.22, 19.22, 19.22, 19.22, 19.22, 19.22, 18.78, 18.78, 18.78, 18.78, 18.78, 18.78, 18.78, 18.78, 18.78, 18.78, 18.78, 18.78, 18.78, 18.78, 18.78, 18.78, 18.78, 18.78, 18.78, 18.78, 18.78, 18.78, 18.78, 19.22, 19.22, 19.22, 19.67, 19.22, 19.22, 18.78, 18.78, 18.78, 19.22, 18.78, 18.78, 18.78, 18.78, 18.78, 19.67, 20.12, 20.12, 20.12, 19.67, 19.67, 19.67, 19.67, 19.67, 20.12, 20.12, 20.56, 20.56, 21.01, 20.56, 20.56, 20.12, 19.67, 18.78, 18.78, 19.22, 19.67, 19.67, 19.67, 19.67, 19.67, 19.67, 19.67, 17.88, 17.88, 18.33, 18.33, 18.33, 18.33, 18.33, 18.33, 18.33, 18.33, 18.33, 18.33, 18.33, 18.78, 18.78, 18.78, 18.78, 18.78, 18.78, 18.78, 18.78, 18.78, 18.78, 18.78, 18.78, 18.78, 18.78, 18.78, 19.22, 19.22, 18.78, 18.78, 18.78, 18.78, 18.33, 18.78, 18.78, 18.78, 18.78, 18.78, 18.78, 18.78, 18.78, 18.78, 18.78, 18.78, 18.78, 18.78, 18.78, 18.78, 18.78, 18.78, 19.22, 19.22, 19.22, 19.22, 19.22, 19.67, 19.67, 19.67, 19.67, 19.67, 19.22, 19.22, 19.22, 19.22, 19.22, 18.78, 18.78, 19.22, 19.67, 20.12, 20.56, 20.56, 20.12, 19.67, 19.67, 19.67, 20.12, 20.12, 20.56, 21.01, 21.01, 21.01, 21.01, 21.01, 21.01, 20.56, 19.67, 19.22, 18.78, 19.22, 19.22, 19.67, 19.67, 20.12, 19.67, 19.67, 17.88, 17.88, 17.88, 17.88, 18.33, 18.33, 18.33, 18.33, 18.33, 18.33, 18.33, 18.33, 18.33, 18.33, 18.78, 18.78, 18.78, 18.78, 18.78, 18.78, 18.78, 18.78, 18.78, 18.78, 18.78, 18.78, 18.78, 18.78, 18.78, 18.78, 18.78, 18.33, 18.33, 18.33, 18.33, 18.33, 18.78, 18.78, 18.78, 18.78, 18.78, 18.78, 18.78, 18.78, 18.78, 18.78, 18.78, 18.78, 18.78, 18.78, 18.78, 18.78, 19.22, 19.22, 19.22, 19.67, 19.67, 19.67, 19.67, 19.67, 19.67, 19.67, 19.67, 19.67, 19.22, 19.22, 19.22, 19.22, 19.22, 19.67, 19.67, 20.12, 20.56, 20.56, 20.12, 20.12, 19.67, 20.12, 20.56, 20.56, 21.01, 21.01, 21.01, 21.01, 21.46, 21.01, 21.01, 21.01, 20.56, 20.12, 19.67, 18.78, 19.22, 19.67, 20.12, 20.12, 19.67, 19.67, 17.88, 17.88, 17.88, 17.88, 17.88, 17.88, 17.88, 17.88, 17.88, 17.88, 17.88, 18.33, 18.33, 18.33, 18.33, 18.33, 18.33, 18.33, 18.33, 18.33, 18.33, 18.33, 18.33, 18.33, 18.33, 18.33, 18.33, 18.33, 18.33, 18.33, 18.33, 18.33, 18.33, 18.33, 18.33, 18.33, 18.78, 18.78, 18.78, 18.78, 18.78, 18.78, 18.78, 18.78, 18.78, 18.78, 18.78, 18.78, 18.78, 18.78, 18.78, 19.22, 19.22, 19.22, 19.22, 19.67, 19.67, 19.67, 19.67, 19.67, 20.12, 20.12, 20.12, 19.67, 19.67, 19.67, 19.67, 19.67, 19.67, 19.67, 19.67, 20.12, 20.56, 20.56, 20.56, 20.56, 20.56, 20.56, 20.56, 21.01, 21.01, 21.01, 21.01, 21.46, 21.46, 21.46, 21.01, 21.01, 21.01, 20.56, 19.67, 18.78, 18.78, 18.78, 19.22, 19.67, 19.67, 19.67, 17.88, 17.88, 17.88, 17.88, 17.88, 17.88, 17.88, 17.88, 17.88, 17.88, 17.88, 17.88, 17.88, 18.33, 18.33, 18.33, 18.33, 18.33, 18.33, 17.88, 17.88, 18.33, 18.33, 18.33, 18.33, 18.33, 18.33, 18.33, 18.33, 17.88, 17.88, 18.33, 18.33, 18.33, 18.33, 18.33, 18.33, 18.33, 18.33, 18.33, 18.33, 18.78, 18.78, 18.78, 18.78, 18.78, 18.78, 18.78, 18.78, 18.78, 18.78, 19.22, 19.22, 19.22, 19.22, 19.22, 19.67, 19.67, 19.67, 20.12, 20.12, 20.12, 20.12, 20.12, 20.12, 20.12, 20.12, 20.12, 20.12, 20.12, 19.67, 19.67, 20.56, 20.56, 20.56, 21.01, 21.46, 21.46, 21.01, 20.56, 20.56, 20.56, 21.01, 21.46, 21.46, 21.46, 21.46, 21.01, 21.01, 21.01, 20.12, 19.67, 19.22, 18.78, 18.78, 19.22, 19.22, 19.22, 17.43, 17.43, 17.43, 17.43, 17.43, 17.88, 17.88, 17.88, 17.88, 17.88, 17.88, 17.88, 17.88, 17.88, 17.88, 18.33, 18.33, 17.88, 17.88, 17.88, 17.88, 18.33, 18.33, 18.33, 17.88, 17.88, 17.88, 17.88, 17.88, 17.88, 17.88, 18.33, 18.33, 18.33, 18.33, 18.33, 18.33, 18.33, 18.33, 18.33, 18.33, 18.33, 18.78, 18.78, 18.78, 18.78, 18.78, 18.78, 18.78, 18.78, 18.78, 19.22, 19.22, 19.22, 19.22, 19.22, 19.22, 19.67, 19.67, 19.67, 20.12, 20.12, 20.56, 20.56, 20.56, 20.12, 20.12, 20.12, 20.12, 20.12, 19.67, 19.22, 19.67, 20.56, 21.01, 21.9, 21.9, 21.46, 21.01, 20.56, 20.56, 21.01, 21.46, 21.9, 21.9, 21.9, 21.46, 21.46, 21.01, 21.01, 21.01, 20.56, 19.67, 19.22, 18.78, 18.78, 19.22, 19.22, 17.43, 17.43, 17.43, 17.43, 17.43, 17.43, 17.43, 17.43, 17.43, 17.43, 17.43, 17.88, 17.88, 17.88, 17.88, 17.88, 17.88, 17.88, 17.88, 17.88, 17.88, 18.33, 17.88, 17.88, 17.88, 17.88, 17.88, 17.88, 17.88, 17.88, 17.88, 17.88, 18.33, 18.33, 18.33, 18.33, 18.33, 18.33, 18.33, 18.33, 18.33, 18.33, 18.78, 18.78, 18.78, 18.78, 18.78, 18.78, 18.78, 18.78, 18.78, 19.22, 19.22, 19.22, 19.22, 19.22, 19.22, 19.67, 19.67, 19.67, 20.12, 20.12, 20.12, 20.56, 20.56, 20.56, 20.56, 20.12, 20.12, 19.67, 19.22, 18.78, 19.22, 20.12, 21.46, 21.9, 21.9, 21.46, 21.01, 20.56, 21.01, 21.01, 21.46, 21.46, 21.9, 21.9, 21.9, 21.46, 21.01, 21.01, 21.01, 20.56, 20.12, 19.67, 19.22, 18.78, 19.22, 19.22, 17.43, 17.43, 17.43, 17.43, 17.43, 17.43, 17.43, 17.43, 17.43, 17.43, 17.43, 17.88, 17.88, 17.88, 17.88, 17.88, 17.88, 17.88, 17.88, 17.88, 17.88, 17.88, 17.88, 17.88, 17.88, 17.88, 17.88, 17.88, 17.88, 17.88, 17.88, 17.88, 17.88, 17.88, 18.33, 18.33, 18.33, 18.33, 18.33, 18.33, 18.33, 18.33, 18.78, 18.78, 18.78, 18.78, 18.78, 18.78, 18.78, 18.78, 18.78, 19.22, 19.22, 19.22, 19.22, 19.22, 19.22, 19.67, 19.67, 19.67, 19.67, 20.12, 20.12, 20.56, 20.56, 20.56, 20.56, 20.56, 20.12, 19.67, 19.22, 18.78, 18.78, 20.12, 21.46, 21.9, 21.01, 21.01, 21.01, 20.56, 20.56, 20.56, 21.01, 21.46, 21.9, 21.9, 21.9, 21.46, 21.46, 21.01, 20.56, 20.56, 20.12, 19.67, 19.67, 19.22, 19.22, 19.22, 17.43, 17.43, 17.43, 17.43, 17.43, 17.43, 17.43, 17.43, 17.43, 17.43, 17.43, 17.43, 17.88, 17.88, 17.88, 17.88, 17.88, 17.88, 17.88, 17.88, 17.88, 17.88, 17.88, 17.88, 17.88, 17.88, 17.88, 17.88, 17.88, 17.88, 17.88, 17.88, 17.88, 17.88, 18.33, 18.33, 18.33, 18.33, 18.33, 18.33, 18.33, 18.78, 18.78, 18.78, 18.78, 18.78, 18.78, 18.78, 18.78, 18.78, 18.78, 18.78, 19.22, 19.22, 19.22, 19.22, 19.22, 19.22, 19.67, 19.67, 19.67, 20.12, 20.12, 20.12, 20.12, 20.56, 20.12, 20.12, 20.12, 19.67, 19.67, 19.22, 18.78, 20.12, 21.01, 21.01, 21.01, 21.01, 20.56, 20.56, 20.56, 20.56, 21.01, 21.46, 21.9, 21.9, 21.9, 21.9, 21.46, 20.56, 20.12, 20.12, 19.67, 19.67, 19.67, 19.67, 19.67, 19.67, 16.99, 16.99, 16.99, 16.99, 17.43, 17.43, 17.43, 17.43, 17.43, 17.43, 17.43, 17.88, 17.88, 17.88, 17.88, 17.88, 17.88, 17.88, 17.88, 17.88, 17.88, 17.88, 17.88, 17.88, 17.88, 17.88, 17.88, 17.88, 17.88, 17.88, 17.88, 17.88, 17.88, 17.88, 18.33, 18.33, 18.33, 18.33, 18.33, 18.33, 18.78, 18.78, 18.78, 18.78, 18.78, 18.78, 18.78, 18.78, 18.78, 18.78, 18.78, 18.78, 19.22, 19.22, 19.22, 19.22, 19.22, 19.22, 19.22, 19.67, 19.67, 19.67, 19.67, 20.12, 20.12, 20.12, 20.12, 19.67, 19.67, 19.67, 19.67, 19.67, 20.12, 20.56, 20.56, 20.56, 20.56, 20.56, 20.56, 20.56, 20.56, 20.56, 21.01, 21.46, 21.9, 21.9, 21.46, 21.46, 21.46, 21.01, 20.12, 19.67, 19.22, 19.67, 19.67, 20.12, 19.67, 19.67, 16.99, 16.99, 16.99, 16.99, 17.43, 17.43, 17.43, 17.43, 17.43, 17.43, 17.43, 17.88, 17.88, 17.88, 17.88, 17.88, 17.88, 17.88, 17.88, 17.88, 17.88, 17.88, 17.88, 17.88, 17.88, 17.88, 17.88, 17.88, 17.88, 17.88, 17.88, 17.88, 17.88, 17.88, 18.33, 18.33, 18.33, 18.33, 18.33, 18.33, 18.78, 18.78, 18.78, 18.78, 18.78, 18.78, 18.78, 18.78, 18.78, 18.78, 18.78, 18.78, 18.78, 19.22, 19.22, 19.22, 19.22, 19.22, 19.22, 19.22, 19.67, 19.67, 19.67, 19.67, 19.67, 19.67, 19.67, 19.67, 20.12, 20.12, 20.12, 19.22, 19.67, 20.12, 20.12, 20.12, 20.12, 20.12, 20.12, 20.56, 20.56, 21.01, 21.01, 21.46, 21.46, 21.46, 21.46, 21.01, 21.01, 21.01, 20.56, 20.12, 19.67, 19.22, 19.22, 19.67, 19.67, 19.67, 16.99, 16.99, 16.99, 16.99, 17.43, 17.43, 17.43, 17.43, 17.43, 17.43, 17.88, 17.88, 17.88, 17.88, 17.88, 17.88, 17.88, 17.88, 17.88, 17.88, 17.88, 17.88, 17.88, 17.88, 17.88, 17.88, 17.88, 17.88, 17.88, 17.88, 17.88, 17.88, 17.88, 17.88, 18.33, 18.33, 18.33, 18.33, 18.33, 18.33, 18.78, 18.78, 18.78, 18.78, 18.78, 18.78, 18.78, 18.78, 18.78, 18.78, 18.78, 18.78, 18.78, 18.78, 19.22, 19.22, 19.22, 19.22, 19.22, 19.22, 19.22, 19.67, 19.67, 19.67, 19.67, 19.67, 19.67, 19.67, 20.12, 19.67, 19.67, 19.22, 19.22, 19.67, 20.12, 19.67, 19.67, 19.67, 19.67, 20.12, 20.56, 21.01, 21.01, 21.01, 21.01, 21.01, 21.01, 21.01, 21.01, 21.01, 21.01, 20.56, 20.12, 19.22, 18.78, 18.78, 19.22, 19.22, 17.43, 17.43, 17.43, 17.43, 17.43, 17.43, 17.43, 17.43, 17.43, 17.88, 17.88, 17.88, 17.88, 17.88, 17.88, 17.88, 17.88, 17.88, 17.88, 17.88, 17.88, 17.88, 17.88, 17.88, 17.88, 17.88, 17.88, 17.88, 17.88, 17.88, 17.88, 17.88, 17.88, 17.88, 18.33, 18.33, 18.33, 18.33, 18.33, 18.33, 18.33, 18.33, 18.78, 18.78, 18.78, 18.78, 18.78, 18.78, 18.78, 18.78, 18.78, 18.78, 18.78, 18.78, 18.78, 19.22, 19.22, 19.22, 19.22, 19.22, 19.22, 19.22, 19.67, 19.22, 19.22, 19.67, 19.67, 19.67, 19.67, 19.67, 19.67, 19.22, 19.22, 19.67, 19.67, 19.67, 19.67, 19.22, 19.67, 20.12, 20.56, 21.01, 21.01, 21.01, 21.01, 20.56, 20.56, 20.56, 21.01, 21.01, 21.01, 21.01, 20.56, 19.67, 19.22, 18.78, 18.78, 18.78, 17.43, 17.43, 17.43, 17.43, 17.43, 17.43, 17.43, 17.43, 17.88, 17.88, 17.88, 17.88, 17.88, 17.88, 17.88, 17.88, 17.88, 17.88, 17.88, 17.88, 17.88, 17.88, 17.88, 17.88, 17.88, 17.88, 17.88, 17.88, 17.88, 17.88, 17.88, 17.88, 17.88, 18.33, 18.33, 18.33, 18.33, 18.33, 18.33, 18.33, 18.33, 18.33, 18.33, 18.33, 18.78, 18.78, 18.78, 18.78, 18.78, 18.78, 18.78, 18.78, 18.78, 18.78, 18.78, 18.78, 19.22, 19.22, 19.22, 19.22, 19.22, 19.22, 19.22, 19.22, 19.22, 19.22, 19.67, 19.67, 19.67, 19.67, 19.67, 19.22, 19.22, 19.22, 19.22, 19.22, 19.22, 19.67, 19.22, 19.67, 20.12, 21.01, 21.01, 21.01, 20.56, 20.12, 20.56, 20.56, 21.01, 21.01, 21.01, 21.01, 20.56, 20.12, 19.22, 18.78, 18.78, 18.78, 17.43, 17.43, 17.43, 17.43, 17.43, 17.43, 17.43, 17.43, 17.88, 17.88, 17.88, 17.88, 17.88, 17.88, 17.88, 17.88, 17.88, 17.88, 17.88, 17.88, 17.88, 17.88, 17.88, 17.88, 17.88, 17.88, 17.88, 17.88, 17.88, 17.88, 17.88, 17.88, 17.88, 18.33, 18.33, 18.33, 18.33, 18.33, 18.33, 18.33, 18.33, 18.33, 18.33, 18.33, 18.33, 18.78, 18.78, 18.78, 18.78, 18.78, 18.78, 18.78, 18.78, 18.78, 18.78, 18.78, 18.78, 19.22, 19.22, 19.22, 19.22, 19.22, 19.22, 19.22, 19.22, 19.22, 19.67, 19.67, 19.67, 19.67, 19.22, 19.22, 19.22, 19.22, 18.78, 18.78, 19.22, 20.12, 19.67, 19.67, 19.67, 20.12, 20.56, 20.56, 20.12, 20.12, 20.12, 20.56, 20.56, 21.01, 21.01, 20.56, 20.56, 20.12, 19.67, 19.22, 18.78, 18.78, 17.43, 17.43, 17.43, 17.43, 17.43, 17.43, 17.43, 17.43, 17.88, 17.88, 17.88, 17.88, 17.88, 17.88, 17.88, 17.88, 17.88, 17.88, 17.88, 17.88, 17.88, 17.88, 17.88, 17.88, 17.88, 17.88, 17.88, 17.88, 17.88, 17.88, 17.88, 17.88, 17.88, 17.88, 18.33, 18.33, 18.33, 18.33, 18.33, 18.33, 18.33, 18.33, 18.33, 18.33, 18.33, 18.78, 18.78, 18.78, 18.78, 18.78, 18.78, 18.78, 18.78, 18.78, 18.78, 18.78, 18.78, 18.78, 19.22, 19.22, 19.22, 19.22, 19.22, 19.22, 19.22, 19.22, 19.22, 19.22, 19.67, 19.67, 19.22, 19.22, 18.78, 18.78, 18.33, 18.33, 19.22, 20.12, 20.12, 19.67, 19.67, 19.67, 19.67, 19.67, 20.12, 20.12, 20.12, 20.12, 20.56, 20.56, 20.56, 20.56, 20.12, 20.12, 20.12, 19.67, 19.22, 19.22, 17.43, 17.43, 17.43, 17.43, 17.43, 17.43, 17.43, 17.43, 17.88, 17.88, 17.88, 17.88, 17.88, 17.88, 18.33, 17.88, 17.88, 17.88, 17.88, 17.88, 17.88, 17.88, 17.88, 17.88, 17.88, 17.88, 17.88, 17.88, 17.88, 17.88, 17.88, 17.88, 17.88, 17.88, 17.88, 17.88, 18.33, 18.33, 18.33, 18.33, 18.33, 18.33, 18.33, 18.33, 18.33, 18.78, 18.78, 18.78, 18.78, 18.78, 18.78, 18.78, 18.78, 18.78, 18.78, 18.78, 18.78, 18.78, 18.78, 19.22, 19.22, 19.22, 19.22, 19.22, 19.22, 19.22, 19.22, 19.22, 19.22, 19.22, 19.22, 19.22, 18.78, 18.33, 17.88, 18.33, 19.22, 20.12, 20.56, 20.12, 19.22, 18.78, 19.22, 19.22, 19.67, 20.12, 20.12, 20.12, 20.12, 20.12, 20.56, 20.56, 20.12, 20.12, 19.67, 19.67, 19.22, 19.22, 17.43, 17.43, 17.43, 17.43, 17.43, 17.43, 17.43, 17.43, 17.88, 17.88, 17.88, 17.88, 17.88, 17.88, 17.88, 17.88, 17.88, 17.88, 17.88, 17.88, 17.88, 17.88, 17.88, 17.88, 17.88, 17.88, 17.88, 17.88, 17.88, 17.88, 17.88, 17.88, 17.88, 17.88, 17.88, 17.88, 18.33, 18.33, 18.33, 18.33, 18.33, 18.33, 18.33, 18.33, 18.33, 18.78, 18.78, 18.78, 18.78, 18.78, 18.78, 18.78, 18.78, 18.78, 18.78, 18.78, 18.78, 18.78, 18.78, 19.22, 19.22, 19.22, 19.22, 19.22, 19.22, 19.22, 19.22, 19.22, 19.22, 19.22, 19.22, 19.22, 18.78, 17.88, 17.88, 18.33, 19.67, 20.12, 20.12, 20.12, 19.22, 18.78, 18.78, 19.22, 19.67, 19.67, 20.12, 20.12, 20.12, 20.12, 20.12, 20.56, 20.56, 20.12, 19.67, 19.67, 19.22, 19.22, 17.43, 17.43, 17.43, 17.43, 17.43, 17.43, 17.43, 17.43, 17.88, 17.88, 17.88, 17.88, 17.88, 17.88, 17.88, 17.88, 17.88, 17.88, 17.88, 17.88, 17.88, 17.88, 17.88, 17.88, 17.43, 17.43, 17.43, 17.43, 17.88, 17.88, 17.88, 17.88, 17.88, 17.88, 17.88, 17.88, 18.33, 18.33, 18.33, 18.33, 18.33, 18.33, 18.33, 18.33, 18.33, 18.78, 18.78, 18.78, 18.78, 18.78, 18.78, 18.78, 18.78, 18.78, 18.78, 18.78, 18.78, 18.78, 18.78, 18.78, 19.22, 19.22, 19.22, 19.22, 19.22, 19.22, 19.22, 19.22, 19.22, 19.22, 19.22, 19.22, 18.78, 17.88, 17.43, 18.78, 19.67, 20.12, 20.12, 19.67, 19.67, 19.67, 19.22, 18.78, 19.22, 19.22, 19.67, 20.12, 20.12, 20.12, 20.12, 20.56, 20.56, 20.12, 20.12, 19.67, 19.67, 19.67, 17.43, 17.43, 17.43, 17.43, 17.43, 17.43, 17.43, 17.43, 17.88, 17.88, 17.88, 17.88, 17.88, 17.88, 17.88, 17.88, 17.88, 17.88, 17.88, 17.88, 17.88, 17.88, 17.88, 17.43, 17.43, 17.43, 17.43, 17.43, 17.88, 17.88, 17.88, 17.88, 17.88, 17.88, 17.88, 17.88, 18.33, 18.33, 18.33, 18.33, 18.33, 18.33, 18.33, 18.33, 18.33, 18.78, 18.78, 18.78, 18.78, 18.78, 18.78, 18.78, 18.78, 18.78, 18.78, 18.78, 18.78, 18.78, 18.78, 18.78, 19.22, 19.22, 19.22, 19.22, 19.22, 19.22, 19.22, 19.22, 19.22, 19.22, 19.22, 19.22, 18.78, 17.88, 17.88, 19.22, 20.12, 19.67, 19.67, 19.67, 20.12, 20.12, 19.67, 18.78, 18.33, 18.78, 19.22, 19.67, 20.12, 20.12, 20.12, 20.56, 20.12, 20.12, 19.67, 19.67, 19.22, 19.22, 17.43, 17.43, 17.43, 17.43, 17.43, 17.43, 17.43, 17.43, 17.88, 17.88, 17.88, 17.88, 17.88, 17.88, 17.88, 17.88, 17.88, 17.88, 17.88, 17.88, 17.88, 17.43, 17.43, 17.43, 17.43, 17.43, 17.43, 17.43, 17.43, 17.88, 17.88, 17.88, 17.88, 17.88, 17.88, 17.88, 18.33, 18.33, 18.33, 18.33, 18.33, 18.33, 18.33, 18.33, 18.33, 18.78, 18.78, 18.78, 18.78, 18.78, 18.78, 18.78, 18.78, 18.78, 18.78, 18.78, 18.78, 18.78, 18.78, 18.78, 19.22, 19.22, 19.22, 19.22, 19.22, 19.22, 19.22, 19.22, 19.22, 19.22, 19.22, 18.78, 18.33, 17.88, 17.88, 19.22, 20.12, 19.67, 19.67, 19.67, 20.12, 20.12, 19.67, 18.78, 17.88, 18.33, 18.78, 19.67, 20.12, 20.12, 20.12, 20.12, 20.12, 19.67, 19.67, 19.67, 19.22, 19.22, 17.43, 17.43, 17.43, 17.43, 17.43, 17.43, 17.43, 17.43, 17.88, 17.88, 17.88, 17.88, 17.88, 17.88, 17.88, 17.88, 17.88, 17.88, 17.43, 17.43, 17.43, 17.43, 17.43, 17.43, 17.43, 17.43, 17.43, 17.43, 17.43, 17.88, 17.88, 17.88, 17.88, 17.88, 17.88, 17.88, 18.33, 18.33, 18.33, 18.33, 18.33, 18.33, 18.33, 18.33, 18.33, 18.78, 18.78, 18.78, 18.78, 18.33, 18.33, 18.33, 18.78, 18.78, 18.78, 18.78, 18.78, 18.78, 18.78, 18.78, 19.22, 19.22, 19.22, 19.22, 19.22, 19.22, 19.22, 19.22, 18.78, 18.78, 18.78, 18.78, 18.33, 17.88, 17.88, 18.78, 19.67, 20.12, 19.67, 19.67, 19.67, 19.67, 19.22, 18.33, 17.88, 17.43, 18.33, 19.22, 20.12, 20.56, 20.12, 20.12, 19.67, 19.67, 19.22, 19.22, 19.22, 19.22, 17.43, 17.43, 17.43, 17.43, 17.43, 17.43, 17.43, 17.43, 17.43, 17.88, 17.88, 17.88, 17.88, 17.43, 17.43, 17.43, 17.43, 17.43, 17.43, 17.43, 17.43, 17.43, 17.43, 17.43, 17.43, 17.43, 17.43, 17.43, 17.43, 17.88, 17.88, 17.88, 17.88, 17.88, 17.88, 18.33, 18.33, 18.33, 18.33, 18.33, 18.33, 18.33, 18.33, 18.33, 18.33, 18.78, 18.78, 18.78, 18.33, 18.33, 18.33, 18.33, 18.78, 18.78, 18.78, 18.78, 18.78, 18.78, 18.78, 18.78, 18.78, 19.22, 19.22, 19.22, 19.22, 19.22, 19.22, 19.22, 18.78, 18.78, 18.78, 18.78, 18.33, 17.88, 17.88, 18.78, 19.67, 20.12, 20.12, 20.12, 19.67, 19.22, 18.78, 18.33, 17.88, 17.43, 17.88, 18.78, 20.12, 20.56, 20.12, 19.67, 19.67, 19.22, 19.22, 18.78, 18.78, 18.78, 17.43, 17.43, 17.43, 17.43, 17.43, 17.43, 17.43, 17.43, 17.43, 17.43, 17.43, 17.88, 17.43, 17.43, 17.43, 17.43, 17.43, 17.43, 17.43, 17.43, 17.43, 17.43, 17.43, 17.43, 17.43, 17.43, 17.43, 17.43, 17.88, 17.88, 17.88, 17.88, 17.88, 17.88, 17.88, 18.33, 18.33, 18.33, 18.33, 18.33, 18.33, 18.33, 18.33, 18.33, 18.33, 18.78, 18.78, 18.78, 18.33, 18.33, 18.33, 18.33, 18.78, 18.78, 18.78, 18.78, 18.78, 18.78, 18.78, 18.78, 18.78, 18.78, 19.22, 19.22, 19.22, 19.22, 19.22, 19.22, 18.78, 18.78, 18.78, 18.78, 18.33, 17.88, 17.88, 18.78, 19.22, 19.67, 20.56, 20.12, 19.67, 18.78, 18.33, 18.33, 17.88, 17.43, 17.43, 18.78, 19.67, 20.56, 20.56, 19.67, 19.22, 19.22, 18.78, 18.33, 18.33, 18.33, 17.43, 17.43, 17.43, 17.43, 17.43, 17.43, 17.43, 17.43, 17.43, 17.43, 17.43, 17.43, 17.43, 17.43, 17.43, 17.43, 17.43, 17.43, 17.43, 17.43, 17.43, 17.43, 17.43, 17.43, 17.43, 17.43, 17.43, 17.43, 17.88, 17.88, 17.88, 17.88, 17.88, 17.88, 17.88, 18.33, 18.33, 18.33, 18.33, 18.33, 18.33, 18.33, 18.33, 18.33, 18.33, 18.78, 18.78, 18.33, 18.33, 18.33, 18.33, 18.78, 18.78, 18.78, 18.78, 18.78, 18.78, 18.78, 18.78, 18.78, 18.78, 18.78, 18.78, 18.78, 18.78, 19.22, 19.22, 18.78, 18.78, 18.78, 18.78, 18.78, 18.33, 17.88, 17.88, 18.78, 19.22, 19.67, 20.12, 20.12, 19.67, 19.22, 18.33, 17.88, 17.43, 17.43, 17.88, 18.33, 19.67, 20.12, 20.12, 19.67, 19.22, 18.78, 18.33, 18.33, 17.88, 18.33, 17.43, 17.43, 17.43, 17.43, 17.43, 17.43, 17.43, 17.43, 17.43, 17.43, 17.43, 17.43, 17.43, 17.43, 17.43, 17.43, 17.43, 17.43, 17.43, 17.43, 17.43, 17.43, 17.43, 17.43, 17.43, 17.43, 17.43, 17.43, 17.88, 17.88, 17.88, 17.88, 17.88, 17.88, 17.88, 18.33, 18.33, 18.33, 18.33, 18.33, 18.33, 18.33, 18.33, 18.33, 18.33, 18.78, 18.78, 18.33, 18.33, 18.33, 18.33, 18.78, 18.78, 18.78, 18.78, 18.78, 18.78, 18.78, 18.78, 18.78, 18.78, 18.78, 18.78, 18.78, 18.78, 18.78, 18.78, 18.78, 18.78, 18.78, 18.78, 18.78, 18.33, 17.88, 17.43, 18.33, 19.22, 19.67, 19.67, 19.67, 19.67, 19.22, 18.33, 17.88, 17.43, 17.43, 17.88, 18.33, 19.22, 19.67, 20.12, 19.67, 19.22, 18.78, 18.33, 17.88, 17.88, 17.88, 17.43, 17.43, 17.43, 17.43, 17.43, 17.43, 17.43, 17.43, 17.43, 17.43, 17.43, 17.43, 17.43, 17.43, 17.43, 17.43, 17.43, 17.43, 17.43, 17.43, 17.43, 17.43, 17.43, 17.43, 17.43, 17.43, 17.43, 17.43, 17.88, 17.88, 17.88, 17.88, 17.88, 17.88, 17.88, 18.33, 18.33, 18.33, 18.33, 18.33, 18.33, 18.33, 18.33, 18.33, 18.33, 18.33, 18.33, 18.33, 18.33, 18.33, 18.78, 18.78, 18.78, 18.78, 18.78, 18.78, 18.78, 18.78, 18.78, 18.78, 18.78, 18.78, 18.78, 18.78, 18.78, 18.78, 18.78, 18.78, 18.78, 18.78, 18.78, 18.78, 18.33, 17.88, 17.43, 17.88, 19.22, 19.67, 19.67, 19.22, 19.22, 18.78, 18.78, 18.33, 17.88, 17.88, 17.88, 18.33, 18.78, 19.22, 19.22, 19.67, 19.22, 19.22, 18.33, 17.88, 17.88, 17.88, 16.99, 16.99, 17.43, 17.43, 17.43, 17.43, 17.43, 17.43, 17.43, 17.43, 17.43, 17.43, 17.43, 17.43, 17.43, 17.43, 17.43, 17.43, 17.43, 17.43, 17.43, 17.43, 17.43, 17.43, 17.43, 17.43, 17.43, 17.43, 17.43, 17.88, 17.88, 17.88, 17.88, 17.88, 17.88, 17.88, 18.33, 18.33, 18.33, 18.33, 18.33, 18.33, 18.33, 18.33, 18.78, 18.78, 18.33, 18.33, 18.33, 18.33, 18.78, 18.78, 18.78, 18.78, 18.78, 18.78, 18.78, 18.78, 18.78, 18.78, 18.78, 18.78, 18.78, 18.78, 18.78, 18.78, 18.78, 18.78, 18.78, 18.78, 18.78, 18.78, 18.33, 18.33, 17.88, 17.43, 18.33, 19.67, 19.67, 19.22, 18.78, 18.78, 18.33, 18.33, 18.33, 18.33, 18.33, 18.33, 18.33, 18.33, 18.78, 19.22, 19.22, 19.22, 18.33, 17.88, 17.88, 17.88, 16.99, 16.99, 17.43, 17.43, 17.43, 17.43, 17.43, 17.43, 17.43, 17.43, 17.43, 17.43, 17.43, 17.43, 17.43, 17.43, 17.43, 17.43, 17.43, 17.43, 17.43, 17.43, 17.43, 17.43, 17.43, 17.43, 17.43, 17.43, 17.43, 17.88, 17.88, 17.88, 17.88, 17.88, 17.88, 17.88, 17.88, 18.33, 18.33, 18.33, 18.33, 18.33, 18.33, 18.33, 18.33, 18.33, 18.33, 18.33, 18.33, 18.33, 18.78, 18.78, 18.78, 18.78, 18.78, 18.78, 18.78, 18.78, 18.78, 18.78, 18.78, 18.78, 18.78, 18.78, 18.78, 18.78, 18.78, 18.78, 18.78, 18.78, 18.78, 18.78, 18.33, 18.33, 17.88, 17.88, 17.88, 19.22, 20.12, 19.67, 18.78, 18.33, 18.33, 18.33, 18.33, 18.33, 18.33, 17.88, 17.88, 17.88, 18.33, 18.78, 18.78, 18.78, 18.33, 18.33, 18.33, 18.33, 16.99, 16.99, 17.43, 17.43, 17.43, 17.43, 17.43, 17.43, 17.43, 17.43, 17.43, 17.43, 17.43, 17.43, 17.43, 17.43, 17.43, 17.43, 17.43, 17.43, 17.43, 17.43, 17.43, 17.43, 17.43, 17.43, 17.43, 17.43, 17.43, 17.43, 17.88, 17.88, 17.88, 17.88, 17.88, 17.88, 17.88, 17.88, 17.88, 17.88, 17.88, 17.88, 18.33, 18.33, 18.33, 18.33, 18.33, 18.33, 18.33, 18.33, 18.78, 18.78, 18.78, 18.78, 18.78, 18.78, 18.78, 18.78, 18.78, 18.78, 18.78, 18.78, 18.78, 18.78, 18.78, 18.78, 18.78, 18.78, 18.78, 18.78, 18.78, 18.78, 18.78, 18.33, 18.33, 17.88, 17.88, 18.33, 19.22, 19.67, 19.22, 18.33, 18.33, 18.33, 18.78, 18.78, 18.33, 17.88, 17.88, 17.88, 17.88, 18.78, 18.78, 18.78, 18.33, 18.33, 18.33, 18.33, 16.99, 16.99, 17.43, 17.43, 17.43, 17.43, 17.43, 17.43, 17.43, 17.43, 17.43, 17.43, 17.43, 17.43, 17.43, 17.43, 16.99, 16.99, 16.99, 16.99, 16.99, 16.99, 16.99, 16.99, 16.99, 16.99, 16.99, 17.43, 17.43, 17.43, 17.43, 17.88, 17.88, 17.88, 17.88, 17.88, 17.88, 17.88, 17.88, 17.88, 17.88, 17.88, 17.88, 18.33, 18.33, 18.33, 18.33, 18.33, 18.33, 18.33, 18.78, 18.78, 18.78, 18.78, 18.78, 18.78, 18.78, 18.78, 18.78, 18.78, 18.78, 18.78, 18.78, 18.78, 18.78, 18.78, 18.78, 18.78, 18.78, 18.78, 18.78, 18.78, 18.78, 18.33, 18.33, 18.33, 17.88, 17.88, 18.78, 19.67, 19.22, 18.78, 18.33, 18.33, 18.78, 18.78, 18.33, 17.88, 17.43, 17.43, 18.33, 18.78, 18.78, 18.78, 18.33, 18.33, 18.33, 18.33, 16.99, 16.99, 16.99, 17.43, 17.43, 17.43, 17.43, 17.43, 17.43, 17.43, 17.43, 17.43, 17.43, 17.43, 16.99, 16.99, 16.99, 16.99, 16.99, 16.99, 16.99, 16.99, 16.99, 16.99, 16.99, 16.99, 16.99, 16.99, 17.43, 17.43, 17.43, 17.43, 17.43, 17.88, 17.88, 17.88, 17.88, 17.88, 17.88, 17.88, 17.88, 17.88, 17.88, 17.88, 18.33, 18.33, 18.33, 18.33, 18.33, 18.33, 18.33, 18.78, 18.78, 18.78, 18.78, 18.78, 18.78, 18.78, 18.78, 18.78, 18.78, 18.78, 18.78, 18.78, 18.78, 18.78, 18.78, 18.78, 18.78, 18.78, 18.78, 18.78, 18.78, 18.78, 18.33, 18.33, 17.88, 17.88, 18.33, 18.78, 19.22, 18.78, 18.78, 18.78, 18.78, 18.78, 18.33, 17.43, 16.99, 17.43, 18.33, 18.78, 18.78, 18.33, 18.33, 18.33, 18.33, 18.33, 16.99, 16.99, 16.99, 16.99, 17.43, 17.43, 17.43, 17.43, 17.43, 17.43, 17.43, 16.99, 16.99, 16.99, 16.99, 16.99, 16.99, 16.99, 16.99, 16.99, 16.99, 16.99, 16.99, 16.99, 16.99, 16.99, 16.99, 16.99, 16.99, 17.43, 17.43, 17.43, 17.43, 17.43, 17.43, 17.43, 17.43, 17.88, 17.88, 17.88, 17.88, 17.88, 17.88, 17.88, 17.88, 18.33, 18.33, 18.33, 18.33, 18.33, 18.33, 18.33, 18.78, 18.78, 18.78, 18.78, 18.78, 18.78, 18.78, 18.78, 18.78, 18.78, 18.78, 18.78, 18.78, 18.78, 18.78, 18.78, 18.78, 18.78, 18.78, 18.78, 18.78, 18.78, 18.33, 18.33, 18.33, 17.88, 17.88, 18.33, 18.33, 18.78, 19.22, 19.22, 19.22, 18.78, 18.33, 17.43, 16.54, 16.99, 17.88, 18.33, 18.33, 18.33, 18.33, 18.33, 18.33, 18.33, 16.99, 16.99, 16.99, 16.99, 17.43, 17.43, 17.43, 17.43, 17.43, 16.99, 16.99, 16.99, 16.99, 16.99, 16.99, 16.99, 16.99, 16.99, 16.54, 16.54, 16.54, 16.54, 16.54, 16.54, 16.54, 16.54, 16.54, 16.99, 16.99, 16.99, 16.99, 17.43, 17.43, 17.43, 17.43, 17.43, 17.43, 17.43, 17.43, 17.43, 17.43, 17.43, 17.88, 17.88, 17.88, 17.88, 17.88, 17.88, 17.88, 18.33, 18.33, 18.33, 18.33, 18.33, 18.33, 18.78, 18.78, 18.78, 18.78, 18.78, 18.78, 18.78, 18.78, 18.78, 18.78, 18.78, 18.78, 18.78, 18.78, 18.78, 18.78, 18.78, 18.78, 18.78, 18.33, 18.33, 18.33, 17.88, 17.88, 17.88, 17.88, 18.33, 18.78, 19.22, 19.67, 19.22, 16.99, 16.54, 16.54, 16.99, 17.43, 17.88, 18.33, 18.33, 18.33, 18.33, 18.33, 18.33, 16.99, 16.99, 16.99, 16.99, 16.99, 16.99, 16.99, 16.99, 16.99, 16.99, 16.99, 16.99, 16.99, 16.99, 16.99, 16.99, 16.54, 16.54, 16.54, 16.54, 16.54, 16.54, 16.54, 16.54, 16.54, 16.54, 16.54, 16.54, 16.54, 16.99, 16.99, 16.99, 16.99, 16.99, 16.99, 16.99, 17.43, 17.43, 17.43, 17.43, 17.43, 17.43, 17.43, 17.43, 17.88, 17.88, 17.88, 17.88, 17.88, 17.88, 17.88, 18.33, 18.33, 18.33, 18.33, 18.33, 18.33, 18.78, 18.78, 18.78, 18.78, 18.78, 18.78, 18.78, 18.78, 18.78, 18.78, 18.78, 18.78, 18.78, 18.78, 18.78, 18.78, 18.78, 18.33, 18.33, 18.33, 18.33, 17.88, 17.88, 17.88, 17.88, 18.33, 18.78, 20.12, 18.33, 16.99, 16.54, 16.54, 16.54, 16.99, 17.43, 17.88, 18.33, 18.33, 18.33, 18.33, 18.33, 16.99, 16.99, 16.99, 16.99, 16.99, 16.99, 16.99, 16.99, 16.99, 16.99, 16.99, 16.99, 16.99, 16.54, 16.54, 16.54, 16.54, 16.54, 16.54, 16.54, 16.54, 16.54, 16.09, 16.09, 16.09, 16.54, 16.54, 16.54, 16.54, 16.54, 16.99, 16.99, 16.99, 16.99, 16.99, 16.99, 16.99, 16.99, 16.99, 16.99, 17.43, 17.43, 17.43, 17.43, 17.43, 17.43, 17.88, 17.88, 17.88, 17.88, 17.88, 17.88, 18.33, 18.33, 18.33, 18.33, 18.33, 18.33, 18.33, 18.33, 18.33, 18.78, 18.78, 18.78, 18.78, 18.78, 18.78, 18.78, 18.78, 18.78, 18.78, 18.78, 18.78, 18.78, 18.33, 18.33, 18.33, 18.33, 17.88, 17.88, 17.88, 17.88, 17.88, 17.88, 20.12, 18.78, 17.43, 16.54, 16.54, 16.54, 16.99, 16.99, 17.43, 17.88, 18.33, 18.33, 18.33, 18.33, 16.99, 16.99, 16.99, 16.99, 16.99, 16.99, 16.99, 16.99, 16.99, 16.99, 16.99, 16.54, 16.54, 16.54, 16.54, 16.54, 16.54, 16.54, 16.09, 16.09, 16.09, 16.09, 16.09, 16.09, 16.09, 16.09, 16.09, 16.09, 16.09, 16.54, 16.54, 16.54, 16.54, 16.54, 16.54, 16.54, 16.99, 16.99, 16.99, 16.99, 16.99, 16.99, 16.99, 16.99, 17.43, 17.43, 17.43, 17.43, 17.43, 17.43, 17.88, 17.88, 17.88, 17.88, 17.88, 18.33, 18.33, 18.33, 18.33, 18.33, 18.33, 18.33, 18.33, 18.33, 18.78, 18.78, 18.33, 18.33, 18.33, 18.78, 18.78, 18.33, 18.33, 18.33, 18.33, 18.33, 18.33, 18.33, 17.88, 17.88, 17.88, 17.88, 17.43, 18.78, 19.67, 18.78, 17.43, 16.99, 16.54, 16.99, 16.99, 16.99, 16.99, 17.43, 17.88, 17.88, 17.88, 17.88, 16.99, 16.99, 16.99, 16.99, 16.99, 16.99, 16.99, 16.99, 16.99, 16.54, 16.54, 16.54, 16.54, 16.54, 16.54, 16.09, 16.09, 16.09, 16.09, 16.09, 16.09, 16.09, 16.09, 16.09, 16.09, 16.09, 16.09, 16.09, 16.09, 16.09, 16.09, 16.54, 16.54, 16.54, 16.54, 16.54, 16.54, 16.54, 16.54, 16.54, 16.54, 16.99, 16.99, 16.99, 16.99, 16.99, 16.99, 17.43, 17.43, 17.43, 17.43, 17.43, 17.88, 17.88, 17.88, 17.88, 17.88, 18.33, 18.33, 18.33, 18.33, 18.33, 18.33, 18.33, 18.33, 18.33, 18.33, 18.33, 18.33, 18.33, 18.33, 18.33, 18.33, 18.33, 18.33, 18.33, 18.33, 17.88, 17.88, 17.88, 17.88, 17.43, 17.43, 18.33, 19.22, 18.78, 17.88, 16.99, 16.99, 16.99, 16.99, 16.99, 16.99, 17.43, 17.43, 17.43, 17.43, 17.43, 16.99, 16.99, 16.99, 16.99, 16.99, 16.99, 16.99, 16.99, 16.54, 16.54, 16.54, 16.54, 16.54, 16.54, 16.09, 16.09, 16.09, 16.09, 16.09, 15.65, 15.65, 15.65, 15.65, 15.65, 15.65, 15.65, 15.65, 15.65, 15.65, 15.65, 16.09, 16.09, 16.09, 16.09, 16.09, 16.09, 16.09, 16.09, 16.54, 16.54, 16.54, 16.54, 16.54, 16.54, 16.54, 16.99, 16.99, 16.99, 16.99, 16.99, 17.43, 17.43, 17.43, 17.43, 17.88, 17.88, 17.88, 17.88, 17.88, 17.88, 18.33, 18.33, 18.33, 18.33, 18.33, 18.33, 18.33, 18.33, 18.33, 18.33, 18.33, 18.33, 18.33, 18.33, 18.33, 18.33, 18.33, 17.88, 17.88, 17.88, 17.88, 17.43, 16.99, 17.88, 18.78, 18.33, 17.88, 16.99, 16.99, 16.99, 16.99, 16.99, 16.99, 16.99, 16.99, 16.99, 16.99, 16.99, 16.54, 16.54, 16.99, 16.99, 16.99, 16.99, 16.54, 16.54, 16.54, 16.54, 16.54, 16.54, 16.09, 16.09, 16.09, 16.09, 16.09, 15.65, 15.65, 15.65, 15.65, 15.65, 15.65, 15.65, 15.2, 15.2, 15.2, 15.2, 15.65, 15.65, 15.65, 15.65, 15.65, 15.65, 15.65, 15.65, 15.65, 16.09, 16.09, 16.09, 16.09, 16.09, 16.09, 16.09, 16.54, 16.54, 16.54, 16.54, 16.99, 16.99, 16.99, 16.99, 17.43, 17.43, 17.43, 17.43, 17.43, 17.88, 17.88, 17.88, 17.88, 17.88, 17.88, 18.33, 18.33, 18.33, 18.33, 18.33, 18.33, 18.33, 18.33, 18.33, 18.33, 18.33, 18.33, 18.33, 17.88, 17.88, 17.88, 17.88, 17.88, 16.99, 16.99, 17.43, 18.78, 18.33, 17.88, 17.43, 16.99, 16.99, 16.99, 16.99, 16.99, 16.99, 16.99, 16.54, 16.54, 16.54, 16.54, 16.54, 16.54, 16.54, 16.54, 16.54, 16.54, 16.54, 16.54, 16.54, 16.09, 16.09, 16.09, 16.09, 16.09, 16.09, 15.65, 15.65, 15.65, 15.65, 15.65, 15.2, 15.2, 15.2, 15.2, 15.2, 15.2, 15.2, 15.2, 15.2, 15.2, 15.2, 15.2, 15.2, 15.65, 15.65, 15.65, 15.65, 15.65, 15.65, 15.65, 15.65, 15.65, 16.09, 16.09, 16.09, 16.09, 16.54, 16.54, 16.54, 16.54, 16.99, 16.99, 16.99, 16.99, 17.43, 17.43, 17.43, 17.43, 17.43, 17.88, 17.88, 17.88, 17.88, 17.88, 17.88, 17.88, 17.88, 17.88, 17.88, 17.88, 18.33, 18.33, 18.33, 17.88, 17.88, 17.88, 17.88, 17.88, 17.88, 17.43, 16.99, 16.99, 16.99, 18.33, 18.78, 17.88, 17.43, 16.99, 16.99, 16.99, 16.99, 16.99, 16.99, 16.99, 16.54, 16.54, 16.54, 16.54, 16.54, 16.54, 16.54, 16.54, 16.54, 16.54, 16.54, 16.54, 16.09, 16.09, 16.09, 16.09, 16.09, 15.65, 15.65, 15.65, 15.65, 15.65, 15.2, 15.2, 15.2, 15.2, 14.75, 14.75, 14.75, 14.75, 14.75, 14.75, 14.75, 14.75, 14.75, 15.2, 15.2, 15.2, 15.2, 15.2, 15.2, 15.2, 15.2, 15.65, 15.65, 15.65, 15.65, 15.65, 15.65, 16.09, 16.09, 16.09, 16.09, 16.54, 16.54, 16.54, 16.54, 16.99, 16.99, 16.99, 16.99, 17.43, 17.43, 17.43, 17.43, 17.43, 17.43, 17.88, 17.88, 17.88, 17.88, 17.88, 17.88, 17.88, 17.88, 17.88, 17.88, 17.88, 17.88, 17.88, 17.88, 17.88, 17.43, 17.43, 16.99, 16.99, 16.99, 17.88, 18.78, 18.33, 17.43, 16.54, 16.54, 16.99, 16.99, 16.54, 16.99, 16.99, 16.54, 16.54, 16.54, 16.54, 16.54, 16.54, 16.54, 16.54, 16.54, 16.54, 16.54, 16.09, 16.09, 16.09, 16.09, 16.09, 16.09, 15.65, 15.65, 15.65, 15.65, 15.2, 15.2, 15.2, 15.2, 14.75, 14.75, 14.75, 14.75, 14.75, 14.75, 14.75, 14.75, 14.75, 14.75, 14.75, 14.75, 14.75, 14.75, 14.75, 15.2, 15.2, 15.2, 15.2, 15.2, 15.2, 15.2, 15.65, 15.65, 15.65, 15.65, 16.09, 16.09, 16.09, 16.09, 16.09, 16.54, 16.54, 16.54, 16.54, 16.99, 16.99, 16.99, 16.99, 16.99, 17.43, 17.43, 17.43, 17.43, 17.43, 17.43, 17.43, 17.88, 17.88, 17.88, 17.88, 17.88, 17.88, 17.88, 17.43, 17.43, 17.43, 17.43, 17.43, 16.99, 16.99, 16.54, 17.43, 18.78, 18.78, 17.88, 16.54, 16.54, 16.54, 16.54, 16.54, 16.54, 16.54, 16.54, 16.54, 16.54, 16.54, 16.54, 16.54, 16.54, 16.54, 16.54, 16.54, 16.09, 16.09, 16.09, 16.09, 16.09, 16.09, 15.65, 15.65, 15.65, 15.65, 15.2, 15.2, 15.2, 15.2, 14.75, 14.75, 14.75, 14.75, 14.75, 14.75, 14.3, 14.3, 14.3, 14.75, 14.75, 14.75, 14.75, 14.75, 14.75, 14.75, 14.75, 15.2, 15.2, 15.2, 15.2, 15.2, 15.2, 15.2, 15.65, 15.65, 15.65, 15.65, 15.65, 16.09, 16.09, 16.09, 16.09, 16.09, 16.54, 16.54, 16.54, 16.54, 16.99, 16.99, 16.99, 16.99, 16.99, 16.99, 16.99, 17.43, 17.43, 17.43, 17.43, 17.43, 17.43, 17.43, 17.43, 17.43, 17.43, 17.43, 17.43, 17.43, 17.43, 16.99, 16.99, 16.99, 16.54, 16.99, 18.33, 18.78, 18.33, 16.99, 16.09, 16.09, 16.54, 16.54, 16.54, 16.54, 16.54, 16.54, 16.54, 16.54, 16.54, 16.54, 16.54, 16.54, 16.54, 16.09, 16.09, 16.09, 16.09, 16.09, 16.09, 15.65, 15.65, 15.65, 15.65, 15.2, 15.2, 15.2, 15.2, 14.75, 14.75, 14.75, 14.75, 14.75, 14.3, 14.3, 14.3, 14.3, 14.3, 14.3, 14.75, 14.75, 14.75, 14.75, 14.75, 14.75, 15.2, 15.2, 15.2, 15.2, 15.2, 15.2, 15.2, 15.2, 15.65, 15.65, 15.65, 15.65, 15.65, 16.09, 16.09, 16.09, 16.09, 16.09, 16.09, 16.54, 16.54, 16.54, 16.54, 16.54, 16.54, 16.99, 16.99, 16.99, 16.99, 16.99, 16.99, 16.99, 17.43, 17.43, 17.43, 17.43, 17.43, 17.43, 17.43, 17.43, 16.99, 16.99, 16.99, 16.99, 16.99, 16.54, 16.54, 16.99, 17.88, 18.78, 18.33, 17.43, 16.54, 16.09, 16.09, 16.09, 16.54, 16.54, 16.09, 16.09, 16.09, 16.54, 16.54, 16.54, 16.54, 16.54, 16.54, 16.09, 16.09, 16.09, 16.09, 16.09, 16.09, 15.65, 15.65, 15.65, 15.65, 15.2, 15.2, 15.2, 15.2, 14.75, 14.75, 14.75, 14.75, 14.75, 14.3, 14.3, 14.3, 14.3, 14.3, 14.3, 14.75, 14.75, 14.75, 14.75, 14.75, 14.75, 15.2, 15.2, 15.2, 15.2, 15.2, 15.2, 15.2, 15.2, 15.65, 15.65, 15.65, 15.65, 15.65, 16.09, 16.09, 16.09, 16.09, 16.09, 16.09, 16.54, 16.54, 16.54, 16.54, 16.54, 16.54, 16.99, 16.99, 16.99, 16.99, 16.99, 16.99, 16.99, 17.43, 17.43, 17.43, 17.43, 17.43, 17.43, 17.43, 16.99, 16.99, 16.99, 16.99, 16.99, 16.99, 16.54, 16.54, 16.54, 17.43, 18.33, 18.78, 17.88, 16.54, 16.09, 16.09, 16.09, 16.09, 15.65, 15.65, 15.65, 15.65]}, {"header": {"parameterCategory": 1, "parameterNumber": 3, "dx": 0.06612293990616946, "dy": 0.0552356325346848, "nx": 98, "ny": 59, "la1": 35.046912555036876, "la2": 31.78801023549047, "lo1": -121.43107172385933, "lo2": -114.95102361305473, "refTime": "2026042400"}, "data": [3.13, 3.13, 3.13, 3.13, 3.13, 3.13, 3.13, 3.13, 3.13, 3.13, 3.13, 3.13, 3.13, 3.13, 2.68, 2.68, 2.68, 2.68, 2.24, 2.24, 2.24, 1.79, 1.79, 1.34, 1.34, 0.89, 0.89, 0.89, 0.45, 0.45, 0.45, 0.45, 0.45, 0.45, 0.45, 0.45, 0.45, 0.0, 0.0, 0.0, 0.0, 0.0, 0.0, 0.0, 0.0, 0.0, 0.0, 0.0, 0.0, 0.0, 0.0, -0.45, -0.45, -0.45, -0.45, -0.45, -0.45, -0.45, -0.45, -0.45, -0.89, -0.89, -0.89, -0.89, -0.89, -0.89, -0.89, -0.89, -0.89, -0.89, -0.89, -0.89, -0.45, -0.45, -0.45, -0.45, -0.45, -0.45, -0.89, -1.34, -1.79, -1.79, -2.24, -2.24, -2.68, -2.68, -2.24, -2.24, -2.24, -2.24, -2.24, -2.24, -1.79, -1.79, -1.79, -1.79, -1.79, -1.34, 3.13, 3.13, 3.13, 3.13, 3.13, 3.13, 3.13, 3.13, 3.13, 3.13, 3.13, 3.13, 3.13, 2.68, 2.68, 2.68, 2.68, 2.68, 2.24, 2.24, 2.24, 1.79, 1.79, 1.34, 1.34, 0.89, 0.89, 0.89, 0.45, 0.45, 0.45, 0.45, 0.45, 0.45, 0.45, 0.45, 0.45, 0.0, 0.0, 0.0, 0.0, 0.0, 0.0, 0.0, 0.0, 0.0, 0.0, 0.0, 0.0, 0.0, 0.0, -0.45, -0.45, -0.45, -0.45, -0.45, -0.45, -0.45, -0.45, -0.45, -0.45, -0.45, -0.89, -0.89, -0.89, -0.89, -0.89, -0.89, -0.89, -0.89, -0.45, -0.45, -0.45, 0.0, 0.0, 0.0, -0.45, -0.45, -0.89, -1.34, -1.79, -1.79, -2.24, -2.24, -2.68, -2.68, -2.24, -2.24, -2.24, -2.24, -2.24, -2.24, -1.79, -1.79, -1.79, -1.79, -1.79, -1.34, 3.13, 3.13, 3.13, 3.13, 3.13, 3.13, 3.13, 3.13, 3.13, 3.13, 3.13, 2.68, 2.68, 2.68, 2.68, 2.68, 2.68, 2.68, 2.24, 2.24, 2.24, 1.79, 1.79, 1.34, 1.34, 1.34, 0.89, 0.89, 0.89, 0.45, 0.45, 0.89, 0.89, 0.89, 0.45, 0.45, 0.45, 0.0, 0.0, 0.0, 0.0, 0.0, 0.0, 0.45, 0.0, 0.0, 0.0, 0.0, 0.0, 0.0, -0.45, -0.45, -0.45, -0.45, -0.45, 0.0, 0.0, 0.0, -0.45, -0.45, -0.45, -0.45, -0.89, -0.89, -0.89, -0.89, -0.89, -0.89, -0.45, -0.45, -0.45, 0.0, 0.0, 0.0, 0.0, 0.0, -0.45, -0.45, -0.89, -1.34, -1.79, -1.79, -2.24, -2.24, -2.24, -2.24, -2.24, -2.24, -2.24, -2.24, -2.24, -2.24, -1.79, -1.79, -1.79, -1.79, -1.34, -1.34, 3.58, 3.13, 3.13, 3.13, 3.13, 3.13, 3.13, 3.13, 2.68, 2.68, 2.68, 2.68, 2.68, 2.68, 2.68, 2.68, 2.68, 2.68, 2.24, 2.24, 2.24, 1.79, 1.79, 1.79, 1.34, 1.34, 0.89, 0.89, 0.89, 0.89, 0.89, 0.89, 0.89, 0.45, 0.45, 0.45, 0.0, 0.0, 0.0, 0.0, 0.45, 0.45, 0.45, 0.0, 0.0, 0.0, 0.0, 0.0, 0.0, 0.0, 0.0, 0.0, 0.0, 0.0, 0.0, 0.0, 0.0, 0.0, -0.45, -0.45, -0.45, -0.45, -0.89, -0.89, -0.89, -0.89, -0.89, -0.89, -0.45, -0.45, 0.0, 0.0, 0.0, 0.0, 0.0, 0.0, -0.45, -0.89, -0.89, -1.34, -1.79, -1.79, -1.79, -2.24, -2.24, -2.24, -2.24, -2.24, -2.24, -2.24, -1.79, -1.79, -1.79, -1.79, -1.79, -1.79, -1.34, -1.34, 3.58, 3.58, 3.13, 3.13, 3.13, 3.13, 3.13, 2.68, 2.68, 2.68, 2.68, 2.68, 2.68, 2.68, 2.68, 2.68, 2.68, 2.24, 2.24, 2.24, 1.79, 1.79, 1.79, 1.79, 1.79, 1.34, 0.89, 0.89, 0.89, 0.89, 0.89, 0.89, 0.89, 0.45, 0.0, 0.0, 0.0, 0.0, 0.0, 0.45, 0.45, 0.45, 0.45, 0.0, 0.0, 0.0, 0.0, 0.0, 0.0, 0.0, 0.0, 0.0, 0.0, 0.0, 0.0, 0.0, 0.0, -0.45, -0.45, -0.45, -0.45, -0.45, -0.89, -0.89, -0.89, -0.89, -0.89, -0.45, -0.45, 0.0, 0.0, 0.0, 0.0, 0.0, 0.0, -0.45, -0.89, -1.34, -1.34, -1.34, -1.79, -1.79, -2.24, -2.24, -2.24, -2.24, -2.24, -2.24, -2.24, -1.79, -1.79, -1.79, -1.79, -1.79, -1.79, -1.79, -1.34, -1.34, 3.58, 3.58, 3.13, 3.13, 3.13, 3.13, 3.13, 2.68, 2.68, 2.68, 2.68, 2.68, 2.68, 2.68, 2.68, 2.68, 2.24, 2.24, 2.24, 2.24, 2.24, 1.79, 1.79, 1.79, 1.79, 1.79, 1.34, 0.89, 0.89, 0.89, 1.34, 0.89, 0.89, 0.45, 0.45, 0.45, 0.45, 0.45, 0.45, 0.45, 0.45, 0.45, 0.0, 0.0, 0.0, 0.0, 0.0, 0.0, 0.0, 0.0, 0.0, 0.0, 0.0, 0.0, 0.0, 0.0, -0.45, -0.45, -0.45, -0.45, -0.45, -0.45, -0.89, -0.89, -0.89, -0.89, -0.45, 0.0, 0.0, 0.0, 0.0, 0.0, 0.0, 0.0, -0.45, -0.89, -1.34, -1.34, -1.79, -1.79, -1.79, -1.79, -2.24, -2.24, -2.24, -2.24, -1.79, -1.79, -1.79, -1.79, -1.79, -1.79, -1.79, -1.79, -1.79, -1.34, -1.34, -1.34, 3.58, 3.58, 3.13, 3.13, 3.13, 3.13, 3.13, 2.68, 2.68, 2.68, 2.68, 2.68, 2.68, 2.68, 2.68, 2.24, 2.24, 2.24, 2.24, 2.24, 2.24, 2.24, 1.79, 1.79, 1.79, 1.79, 1.34, 1.34, 1.34, 0.89, 0.89, 0.89, 0.45, 0.45, 0.45, 0.45, 0.45, 0.45, 0.45, 0.0, 0.0, 0.0, 0.0, 0.0, 0.0, 0.0, 0.0, 0.0, 0.0, 0.0, 0.0, 0.0, 0.0, 0.0, 0.0, -0.45, -0.45, -0.45, -0.45, -0.45, -0.45, -0.45, -0.89, -0.89, -0.89, -0.45, 0.0, 0.0, 0.0, 0.0, 0.0, 0.0, 0.0, -0.45, -0.89, -1.34, -1.34, -1.34, -1.34, -1.34, -1.79, -1.79, -1.79, -1.79, -1.79, -1.79, -1.79, -1.79, -1.79, -1.79, -1.79, -1.79, -1.34, -1.34, -1.34, -1.34, -0.89, -0.89, 3.58, 3.58, 3.13, 3.13, 3.13, 3.13, 3.13, 2.68, 2.68, 2.68, 2.68, 2.68, 2.68, 2.68, 2.68, 2.24, 2.24, 2.24, 2.24, 2.24, 2.24, 2.24, 1.79, 1.79, 1.79, 1.79, 1.79, 1.79, 1.34, 0.89, 0.89, 0.45, 0.45, 0.45, 0.45, 0.89, 0.89, 0.89, 0.45, 0.0, 0.0, 0.0, 0.0, 0.0, 0.0, 0.0, 0.0, 0.0, 0.0, 0.0, 0.0, 0.0, 0.0, 0.0, 0.0, -0.45, -0.45, -0.45, -0.45, -0.45, -0.45, -0.45, -0.89, -0.89, -0.45, 0.0, 0.0, 0.0, 0.0, 0.0, 0.0, -0.45, -0.45, -0.89, -0.89, -0.89, -0.89, -1.34, -1.34, -1.34, -1.34, -1.34, -1.34, -1.34, -1.34, -1.34, -1.34, -1.34, -1.34, -1.34, -1.34, -1.34, -1.34, -1.34, -0.89, -0.89, -0.89, -0.89, 3.58, 3.58, 3.13, 3.13, 3.13, 3.13, 3.13, 2.68, 2.68, 2.68, 2.68, 2.68, 2.68, 2.24, 2.24, 2.24, 2.24, 2.24, 2.24, 2.24, 1.79, 1.79, 1.79, 1.79, 1.79, 1.79, 1.79, 1.79, 1.34, 0.89, 0.89, 0.45, 0.45, 0.45, 0.45, 0.89, 0.89, 1.34, 0.89, 0.45, 0.0, 0.0, 0.0, 0.0, 0.0, 0.0, 0.0, 0.0, 0.0, 0.0, 0.0, 0.0, 0.0, 0.0, 0.0, 0.0, 0.0, 0.0, 0.0, -0.45, -0.45, -0.45, -0.45, 0.0, 0.0, 0.0, 0.0, 0.0, 0.0, 0.0, -0.45, -0.45, -0.45, -0.89, -0.89, -0.89, -0.89, -0.89, -0.89, -0.89, -0.89, -1.34, -1.34, -1.34, -0.89, -0.89, -0.89, -1.34, -1.34, -1.34, -1.34, -1.34, -1.34, -0.89, -0.89, -0.89, -0.89, -0.89, 3.58, 3.13, 3.13, 3.13, 3.13, 3.13, 3.13, 2.68, 2.68, 2.68, 2.68, 2.68, 2.68, 2.68, 2.24, 2.24, 2.24, 2.24, 2.24, 1.79, 1.79, 1.79, 1.79, 1.79, 1.79, 2.24, 2.24, 1.79, 1.34, 0.89, 0.89, 0.89, 0.45, 0.45, 0.45, 0.45, 0.89, 1.34, 0.89, 0.45, 0.0, 0.0, 0.0, 0.0, 0.0, 0.0, 0.0, 0.0, 0.0, 0.0, 0.0, 0.0, 0.0, 0.0, 0.0, 0.0, 0.0, 0.0, 0.0, -0.45, -0.45, -0.45, 0.0, 0.0, 0.0, 0.0, 0.0, 0.0, -0.45, -0.45, -0.45, -0.45, -0.45, -0.89, -0.89, -0.89, -0.45, -0.45, -0.45, -0.45, -0.45, -0.89, -1.34, -0.89, -0.89, -0.89, -0.89, -0.89, -0.89, -1.34, -1.34, -1.34, -0.89, -0.89, -0.89, -0.89, -0.89, -0.89, 3.58, 3.13, 3.13, 3.13, 3.13, 3.13, 3.13, 3.13, 2.68, 2.68, 2.68, 2.68, 2.68, 2.68, 2.68, 2.24, 2.24, 2.24, 2.24, 2.24, 2.24, 1.79, 1.79, 1.79, 1.79, 2.24, 1.79, 1.79, 1.34, 1.34, 1.34, 1.34, 0.89, 0.45, 0.45, 0.45, 0.45, 0.89, 0.89, 0.89, 0.45, 0.0, 0.0, 0.0, 0.0, 0.0, 0.0, 0.0, 0.0, 0.0, 0.0, 0.0, 0.0, 0.0, 0.0, 0.0, 0.0, 0.0, 0.0, -0.45, -0.45, 0.0, 0.0, 0.0, 0.0, 0.0, -0.45, -0.45, -0.45, -0.45, -0.45, -0.45, -0.45, -0.45, -0.45, -0.45, -0.45, -0.45, -0.45, -0.45, 0.0, 0.0, 0.0, -0.89, -0.89, -1.34, -0.89, -0.89, -0.89, -0.89, -0.89, -0.89, -0.89, -0.89, -0.89, -0.89, -0.89, -0.89, 3.13, 3.13, 3.13, 3.13, 3.13, 3.13, 3.13, 3.13, 2.68, 2.68, 2.68, 2.68, 2.68, 2.68, 2.68, 2.24, 2.24, 2.24, 2.24, 2.24, 2.24, 2.24, 2.24, 2.24, 2.24, 2.24, 2.24, 1.79, 1.79, 1.34, 1.34, 1.34, 0.89, 0.45, 0.45, 0.45, 0.45, 0.89, 0.89, 0.89, 0.89, 0.45, 0.0, 0.0, 0.0, 0.0, 0.0, 0.0, 0.0, 0.0, 0.0, 0.0, 0.0, 0.0, 0.0, 0.0, 0.0, 0.0, 0.0, -0.45, 0.0, 0.0, 0.0, 0.0, 0.0, -0.45, -0.45, -0.45, -0.45, -0.45, -0.45, -0.45, -0.45, -0.45, -0.45, -0.45, -0.45, -0.45, 0.0, 0.0, 0.0, 0.0, 0.0, -0.45, -0.89, -1.34, -1.79, -1.34, -0.89, -0.89, -0.45, -0.89, -0.89, -1.34, -1.34, -1.34, -0.89, -0.89, 3.13, 3.13, 3.13, 3.13, 3.13, 3.13, 3.13, 3.13, 3.13, 2.68, 2.68, 2.68, 2.68, 2.68, 2.68, 2.68, 2.24, 2.24, 2.24, 2.24, 2.24, 2.24, 2.24, 2.24, 2.24, 2.24, 2.24, 1.79, 1.79, 1.79, 1.34, 1.34, 0.89, 0.89, 0.45, 0.89, 0.89, 0.89, 0.89, 0.89, 0.89, 0.45, 0.45, 0.0, 0.0, 0.0, 0.0, 0.0, 0.0, 0.0, 0.0, 0.0, 0.0, 0.0, 0.0, 0.0, 0.0, 0.0, 0.0, 0.0, 0.0, 0.0, 0.0, 0.0, 0.0, 0.0, -0.45, -0.45, 0.0, 0.0, 0.0, -0.45, -0.45, -0.45, -0.45, 0.0, 0.0, 0.0, 0.0, 0.0, 0.0, 0.0, 0.0, 0.0, -0.45, -0.89, -1.79, -1.79, -1.79, -1.34, -0.89, -0.89, -0.89, -0.89, -0.89, -0.89, -0.89, -0.89, 3.13, 3.13, 3.13, 3.13, 3.13, 3.13, 3.13, 3.13, 3.13, 2.68, 2.68, 2.68, 2.68, 2.68, 2.68, 2.68, 2.68, 2.24, 2.24, 2.24, 2.24, 2.24, 2.24, 2.24, 2.24, 2.24, 1.79, 1.79, 1.79, 1.79, 1.34, 1.34, 1.34, 0.89, 0.89, 0.89, 0.89, 0.89, 0.89, 0.89, 0.89, 0.45, 0.45, 0.45, 0.0, 0.0, 0.0, 0.0, 0.0, 0.0, 0.0, 0.0, 0.0, 0.0, 0.0, 0.0, 0.0, 0.0, 0.0, 0.0, 0.0, 0.0, 0.0, -0.45, -0.45, 0.0, 0.0, 0.0, 0.0, 0.0, 0.0, 0.0, 0.0, -0.45, -0.45, -0.45, 0.0, 0.0, 0.0, 0.0, 0.0, 0.0, 0.0, 0.0, 0.0, -0.45, -1.34, -1.79, -2.24, -2.24, -1.79, -1.34, -0.89, -0.45, -0.45, -0.45, -0.45, -0.45, 3.13, 3.13, 3.13, 3.13, 3.13, 3.13, 3.13, 3.13, 3.13, 2.68, 2.68, 2.68, 2.68, 2.68, 2.68, 2.68, 2.68, 2.68, 2.24, 2.24, 2.24, 2.24, 2.24, 2.24, 2.24, 2.24, 1.79, 1.79, 1.79, 1.79, 1.79, 1.79, 1.79, 1.34, 1.34, 1.34, 0.89, 0.89, 0.89, 0.89, 0.89, 0.89, 0.45, 0.45, 0.45, 0.0, 0.0, 0.0, 0.0, 0.0, 0.0, 0.0, 0.0, 0.0, 0.0, 0.0, 0.0, 0.0, 0.0, 0.45, 0.0, 0.0, 0.0, -0.45, -0.45, -0.45, 0.0, 0.0, 0.0, 0.0, 0.0, 0.0, 0.0, 0.0, 0.0, 0.0, 0.0, 0.0, 0.0, 0.0, 0.0, 0.0, 0.0, -0.45, -0.45, -0.45, -0.45, -0.89, -1.34, -2.24, -2.24, -1.79, -1.34, -0.45, 0.0, 0.0, 0.0, 0.0, 3.13, 3.13, 3.13, 3.13, 3.13, 3.13, 3.13, 3.13, 3.13, 3.13, 2.68, 2.68, 2.68, 2.68, 2.68, 2.68, 2.68, 2.68, 2.24, 2.24, 2.24, 2.68, 2.24, 2.24, 2.24, 1.79, 1.79, 1.79, 1.79, 1.79, 1.79, 1.79, 1.79, 1.79, 1.34, 1.34, 1.34, 0.89, 0.89, 0.89, 0.89, 0.89, 0.89, 0.45, 0.45, 0.45, 0.0, 0.0, 0.0, 0.0, 0.0, 0.0, 0.0, 0.0, 0.0, 0.0, 0.0, 0.0, 0.0, 0.0, 0.45, 0.0, 0.0, 0.0, 0.0, 0.0, 0.0, 0.0, 0.0, -0.45, -0.45, 0.0, 0.0, 0.0, 0.0, 0.0, 0.0, 0.0, 0.0, -0.45, -0.45, -0.45, 0.0, 0.0, 0.0, 0.0, 0.0, -0.45, -0.45, -1.34, -1.79, -1.79, -1.34, -0.45, 0.0, 0.0, 0.0, 0.0, 3.13, 3.13, 3.13, 3.13, 3.13, 3.13, 3.13, 3.13, 3.13, 3.13, 3.13, 2.68, 2.68, 2.68, 2.68, 2.68, 2.68, 2.68, 2.68, 2.68, 2.68, 2.68, 2.24, 2.24, 2.24, 1.79, 1.79, 1.79, 1.79, 2.24, 2.24, 2.24, 1.79, 1.79, 1.34, 1.34, 0.89, 0.89, 0.89, 0.89, 0.89, 0.89, 0.89, 0.45, 0.45, 0.45, 0.45, 0.45, 0.45, 0.45, 0.45, 0.0, 0.0, 0.0, 0.0, 0.0, 0.0, 0.45, 0.45, 0.0, 0.45, 0.45, 0.45, 0.0, 0.0, 0.0, 0.0, -0.45, -0.45, -0.45, -0.45, 0.0, 0.0, 0.45, 0.45, 0.45, 0.0, -0.45, -0.89, -0.89, -0.45, -0.45, 0.0, 0.0, 0.0, 0.0, 0.0, 0.0, -0.45, -0.89, -1.34, -1.79, -1.79, -1.34, -0.45, 0.0, 0.45, 0.45, 3.13, 3.13, 3.13, 3.13, 3.13, 3.13, 3.13, 3.13, 3.13, 3.13, 3.13, 2.68, 2.68, 2.68, 2.68, 2.68, 2.68, 2.68, 2.68, 2.68, 2.68, 2.24, 2.24, 2.24, 2.24, 2.24, 2.24, 2.24, 2.24, 2.24, 2.24, 2.24, 1.79, 1.79, 1.34, 1.34, 1.34, 0.89, 0.89, 0.89, 0.89, 0.89, 0.89, 0.89, 0.89, 0.45, 0.45, 0.45, 0.45, 0.45, 0.45, 0.45, 0.0, 0.0, 0.0, 0.0, 0.45, 0.45, 0.45, 0.45, 0.45, 0.45, 0.45, 0.45, 0.0, 0.0, 0.0, 0.0, -0.45, -0.45, -0.45, 0.0, 0.0, 0.45, 0.89, 0.45, 0.0, -0.45, -0.89, -0.89, -0.45, -0.45, 0.0, 0.0, 0.0, 0.0, 0.0, 0.0, 0.0, 0.0, -0.45, -0.89, -1.34, -1.34, -0.89, 0.0, 0.45, 0.45, 2.68, 2.68, 3.13, 3.13, 3.13, 3.13, 3.13, 3.13, 3.13, 3.13, 3.13, 2.68, 2.68, 2.68, 2.68, 2.68, 2.68, 2.68, 2.68, 2.68, 2.68, 2.24, 2.24, 2.24, 2.24, 2.24, 2.24, 2.24, 2.24, 2.24, 2.24, 1.79, 1.79, 1.79, 1.79, 1.79, 1.79, 1.34, 1.34, 1.34, 1.34, 1.34, 0.89, 0.89, 0.89, 0.89, 0.45, 0.45, 0.45, 0.45, 0.45, 0.45, 0.45, 0.45, 0.45, 0.45, 0.45, 0.45, 0.45, 0.45, 0.45, 0.45, 0.45, 0.45, 0.45, 0.0, 0.0, 0.0, 0.0, 0.0, 0.0, 0.0, 0.0, 0.89, 0.45, 0.0, 0.0, -0.45, -0.45, -0.45, -0.45, 0.0, 0.0, 0.0, 0.0, 0.0, 0.0, -0.45, 0.0, 0.0, 0.0, -0.45, -0.45, -0.89, -0.89, -0.45, 0.0, 0.0, 2.68, 2.68, 2.68, 3.13, 3.13, 3.13, 3.13, 3.13, 3.13, 3.13, 2.68, 2.68, 2.68, 2.68, 2.68, 2.68, 2.68, 2.68, 2.68, 2.24, 2.24, 2.24, 2.24, 2.24, 2.24, 2.24, 2.24, 2.24, 2.24, 2.24, 2.24, 1.79, 1.79, 1.79, 1.79, 1.79, 1.79, 1.79, 1.79, 1.79, 1.34, 1.34, 1.34, 1.34, 0.89, 0.89, 0.89, 0.89, 0.45, 0.45, 0.45, 0.45, 0.45, 0.45, 0.45, 0.45, 0.45, 0.45, 0.45, 0.45, 0.45, 0.45, 0.45, 0.45, 0.45, 0.45, 0.45, 0.0, 0.0, 0.0, 0.0, 0.0, 0.0, 0.45, 0.0, 0.0, 0.0, 0.0, 0.0, 0.0, 0.0, 0.0, 0.0, 0.0, 0.0, 0.0, 0.0, 0.0, -0.45, -0.45, 0.0, 0.0, 0.0, 0.0, -0.45, -0.45, -0.45, -0.45, 2.68, 2.68, 2.68, 2.68, 2.68, 3.13, 3.13, 3.13, 3.13, 2.68, 2.68, 2.68, 2.68, 2.68, 2.68, 2.68, 2.68, 2.68, 2.68, 2.24, 2.24, 2.24, 2.68, 2.68, 2.68, 2.24, 2.24, 2.24, 2.24, 2.24, 2.24, 2.24, 2.24, 2.24, 2.24, 2.24, 1.79, 1.79, 1.79, 1.79, 1.34, 1.34, 1.34, 1.34, 1.34, 0.89, 0.89, 0.89, 0.89, 0.45, 0.45, 0.45, 0.45, 0.45, 0.45, 0.45, 0.45, 0.45, 0.45, 0.45, 0.45, 0.45, 0.45, 0.45, 0.45, 0.45, 0.45, 0.45, 0.45, 0.45, 0.45, 0.0, 0.0, 0.0, -0.45, 0.0, 0.45, 0.45, 0.0, 0.0, 0.0, 0.0, 0.0, 0.0, 0.0, 0.0, 0.0, 0.0, 0.0, -0.45, -0.45, 0.0, 0.0, 0.0, 0.0, -0.45, -0.89, -0.89, 2.68, 2.68, 2.68, 2.68, 2.68, 2.68, 2.68, 2.68, 2.68, 2.68, 2.68, 2.68, 2.68, 2.68, 2.68, 2.68, 2.68, 2.68, 2.24, 2.24, 2.24, 2.68, 2.68, 2.24, 2.24, 2.24, 2.24, 2.24, 2.24, 2.24, 2.24, 2.24, 2.24, 2.24, 2.24, 2.24, 2.24, 2.24, 1.79, 1.79, 1.79, 1.79, 1.34, 1.34, 1.34, 1.34, 1.34, 0.89, 0.89, 0.89, 0.89, 0.89, 0.45, 0.45, 0.45, 0.45, 0.45, 0.45, 0.45, 0.45, 0.45, 0.45, 0.45, 0.45, 0.45, 0.89, 0.89, 0.89, 0.89, 0.89, 0.45, 0.0, -0.45, -0.89, 0.0, 0.45, 0.89, 0.89, 0.45, 0.45, 0.45, 0.45, 0.45, 0.0, 0.0, 0.0, 0.0, 0.0, 0.0, -0.45, -0.45, -0.45, 0.0, 0.0, 0.0, -0.45, -0.45, -0.45, 2.68, 2.68, 2.68, 2.68, 2.68, 2.68, 2.68, 2.68, 2.68, 2.68, 2.68, 2.68, 2.68, 2.68, 2.68, 2.68, 2.68, 2.68, 2.24, 2.24, 2.68, 2.68, 2.24, 2.24, 2.24, 2.24, 2.24, 2.24, 2.24, 2.24, 2.24, 2.24, 2.24, 2.24, 2.24, 2.24, 2.24, 2.24, 2.24, 1.79, 1.79, 1.79, 1.79, 1.34, 1.34, 1.34, 1.34, 1.34, 0.89, 0.89, 0.89, 0.89, 0.89, 0.89, 0.45, 0.45, 0.45, 0.45, 0.45, 0.45, 0.45, 0.45, 0.45, 0.45, 0.45, 0.89, 0.89, 0.89, 0.89, 0.45, 0.0, 0.0, -0.89, -0.45, 0.0, 0.45, 0.89, 0.89, 0.89, 0.89, 0.89, 0.45, 0.45, 0.0, 0.0, 0.0, 0.0, 0.45, 0.45, 0.0, 0.0, -0.45, -0.45, -0.45, -0.45, -0.45, -0.45, -0.45, 2.68, 2.68, 2.68, 2.68, 2.68, 2.68, 2.68, 2.68, 2.68, 2.68, 2.68, 2.68, 2.68, 2.68, 2.68, 2.68, 2.68, 2.24, 2.24, 2.24, 2.24, 2.68, 2.24, 2.24, 2.24, 2.24, 2.68, 2.24, 2.24, 2.24, 2.24, 2.24, 2.24, 2.24, 2.24, 2.24, 2.24, 2.24, 2.24, 2.24, 1.79, 1.79, 1.79, 1.79, 1.79, 1.34, 1.34, 1.34, 1.34, 1.34, 0.89, 0.89, 0.89, 0.89, 0.89, 0.89, 0.45, 0.45, 0.45, 0.45, 0.45, 0.45, 0.45, 0.45, 0.89, 0.89, 0.89, 0.89, 0.45, 0.45, 0.0, 0.0, -0.45, 0.0, 0.0, 0.45, 0.45, 0.89, 1.34, 1.34, 0.89, 0.45, 0.45, 0.0, 0.0, 0.45, 0.45, 0.45, 0.45, 0.45, 0.0, -0.45, -0.89, -1.34, -0.89, -0.89, -0.45, -0.45, 3.13, 3.13, 2.68, 2.68, 2.68, 2.68, 2.68, 2.68, 2.68, 2.68, 2.68, 2.68, 2.68, 2.68, 2.68, 2.68, 2.68, 2.24, 2.24, 2.24, 2.24, 2.24, 2.24, 2.24, 2.24, 2.24, 2.68, 2.68, 2.24, 2.24, 2.24, 2.24, 2.24, 2.24, 2.24, 2.24, 2.24, 2.24, 2.24, 2.24, 2.24, 1.79, 1.79, 1.79, 1.79, 1.79, 1.79, 1.34, 1.34, 1.34, 1.34, 1.34, 0.89, 0.89, 0.89, 0.89, 0.89, 0.89, 0.45, 0.45, 0.45, 0.45, 0.45, 0.45, 0.45, 0.89, 0.89, 0.45, 0.45, 0.45, 0.45, 0.0, 0.0, 0.0, 0.0, 0.45, 0.45, 0.89, 0.89, 0.89, 0.89, 0.45, 0.45, 0.0, 0.45, 0.45, 0.45, 0.89, 0.45, 0.45, 0.0, 0.0, -0.45, -0.89, -1.34, -0.89, -0.89, -0.89, 3.13, 3.13, 3.13, 3.13, 2.68, 2.68, 2.68, 2.68, 2.68, 2.68, 2.68, 2.68, 2.68, 2.68, 2.68, 2.68, 2.68, 2.24, 2.24, 2.24, 2.24, 2.68, 2.24, 2.24, 2.24, 2.24, 2.68, 2.68, 2.24, 2.24, 2.24, 2.24, 2.24, 2.24, 2.24, 2.24, 2.24, 2.24, 2.24, 2.24, 2.24, 2.24, 1.79, 1.79, 1.79, 1.79, 1.79, 1.79, 1.34, 1.34, 1.34, 1.34, 1.34, 0.89, 0.89, 0.89, 0.89, 0.89, 0.89, 0.45, 0.45, 0.45, 0.89, 0.45, 0.45, 0.45, 0.45, 0.45, 0.45, 0.45, 0.45, 0.45, 0.0, 0.0, 0.45, 0.45, 0.45, 0.45, 0.45, 0.45, 0.45, 0.45, 0.45, 0.45, 0.45, 0.45, 0.89, 0.89, 0.45, 0.45, 0.0, 0.0, 0.0, -0.45, -0.89, -1.34, -1.34, -1.34, 3.13, 3.13, 3.13, 3.13, 3.13, 2.68, 2.68, 2.68, 2.68, 2.68, 2.68, 2.68, 2.68, 2.68, 2.68, 2.68, 2.68, 2.24, 2.24, 2.24, 2.68, 2.68, 2.24, 2.24, 2.24, 2.68, 2.68, 2.68, 2.68, 2.68, 2.68, 2.68, 2.24, 2.24, 2.24, 2.24, 2.24, 2.24, 2.24, 2.24, 2.24, 2.24, 2.24, 1.79, 1.79, 1.79, 1.79, 1.79, 1.34, 1.34, 1.34, 1.34, 1.34, 1.34, 0.89, 0.89, 0.89, 0.89, 0.89, 0.89, 0.45, 0.45, 0.45, 0.89, 0.45, 0.45, 0.45, 0.45, 0.45, 0.45, 0.45, 0.45, 0.0, 0.0, 0.0, 0.45, 0.89, 0.45, 0.0, 0.0, 0.0, 0.0, 0.45, 0.45, 0.45, 0.45, 0.45, 0.45, 0.45, 0.45, 0.45, 0.0, 0.0, 0.0, -0.45, -1.34, -1.34, -1.34, 3.13, 3.13, 3.13, 3.13, 3.13, 3.13, 2.68, 2.68, 2.68, 2.68, 2.68, 2.68, 2.68, 2.68, 2.68, 2.68, 2.68, 2.68, 2.68, 2.68, 2.68, 2.68, 2.68, 2.68, 2.68, 2.68, 2.68, 2.68, 2.68, 2.68, 2.68, 2.68, 2.68, 2.24, 2.24, 2.24, 2.24, 2.24, 2.24, 2.24, 2.24, 2.24, 2.24, 2.24, 1.79, 1.79, 1.79, 1.79, 1.79, 1.34, 1.34, 1.34, 1.34, 1.34, 0.89, 0.89, 0.89, 0.89, 0.89, 0.89, 0.89, 0.89, 0.89, 0.45, 0.45, 0.45, 0.45, 0.45, 0.45, 0.45, 0.45, 0.45, 0.45, 0.0, 0.0, 0.45, 0.89, 0.89, 0.0, 0.0, 0.0, 0.0, 0.45, 0.45, 0.89, 0.89, 0.45, 0.45, 0.45, 0.45, 0.45, 0.45, 0.0, 0.0, 0.0, -0.89, -1.34, -1.34, 3.13, 3.13, 3.13, 3.13, 3.13, 3.13, 3.13, 3.13, 2.68, 2.68, 2.68, 2.68, 2.68, 2.68, 2.68, 2.68, 2.68, 2.68, 2.68, 2.68, 2.68, 2.68, 2.68, 2.68, 2.68, 2.68, 2.68, 2.68, 2.68, 2.68, 2.68, 2.68, 2.68, 2.68, 2.68, 2.68, 2.24, 2.24, 2.24, 2.24, 2.24, 2.24, 2.24, 1.79, 1.79, 1.79, 1.79, 1.79, 1.79, 1.34, 1.34, 1.34, 1.34, 1.34, 1.34, 0.89, 0.89, 0.89, 0.89, 0.89, 0.89, 0.89, 0.89, 0.89, 0.45, 0.45, 0.45, 0.45, 0.45, 0.45, 0.45, 0.45, 0.45, 0.45, 0.45, 0.45, 0.45, 0.45, 0.0, 0.0, -0.45, 0.0, 0.0, 0.45, 0.89, 0.45, 0.0, 0.0, 0.0, 0.45, 0.45, 0.45, 0.45, 0.0, 0.0, 0.0, -0.45, -0.45, 3.13, 3.13, 3.13, 3.13, 3.13, 3.13, 3.13, 3.13, 3.13, 3.13, 3.13, 2.68, 2.68, 2.68, 2.68, 2.68, 2.68, 2.68, 2.68, 2.68, 2.68, 2.68, 2.68, 2.68, 2.68, 2.68, 2.68, 2.68, 2.68, 2.68, 2.68, 2.68, 2.68, 2.68, 2.68, 2.68, 2.68, 2.24, 2.24, 2.24, 2.24, 2.24, 2.24, 2.24, 1.79, 1.79, 1.79, 1.79, 1.79, 1.34, 1.34, 1.34, 1.34, 1.34, 1.34, 1.34, 0.89, 0.89, 0.89, 0.89, 0.89, 0.89, 0.89, 0.89, 0.45, 0.45, 0.45, 0.45, 0.45, 0.45, 0.45, 0.45, 0.45, 0.45, 0.89, 0.45, 0.0, 0.0, 0.0, 0.0, 0.0, 0.0, 0.0, 0.0, 0.0, 0.0, 0.0, 0.0, 0.0, 0.45, 0.45, 0.45, 0.45, 0.0, 0.0, 0.0, 0.0, 0.0, 3.13, 3.13, 3.13, 3.13, 3.13, 3.13, 3.13, 3.13, 3.13, 3.13, 3.13, 3.13, 3.13, 3.13, 2.68, 2.68, 2.68, 2.68, 2.68, 2.68, 2.68, 2.68, 2.68, 2.68, 2.68, 2.68, 2.68, 2.68, 2.68, 2.68, 2.68, 2.68, 2.68, 2.68, 2.68, 2.68, 2.68, 2.24, 2.24, 2.24, 2.24, 2.24, 2.24, 1.79, 1.79, 1.79, 1.79, 1.79, 1.79, 1.34, 1.34, 1.34, 1.34, 1.34, 1.34, 1.34, 0.89, 0.89, 0.89, 0.89, 0.89, 0.89, 0.89, 0.45, 0.45, 0.45, 0.45, 0.45, 0.45, 0.45, 0.45, 0.45, 0.45, 0.45, 0.45, 0.45, 0.0, 0.0, 0.0, 0.45, 0.0, 0.0, -0.45, -0.45, 0.0, 0.0, 0.0, 0.45, 0.45, 0.45, 0.45, 0.45, 0.45, 0.45, 0.0, 0.0, 0.0, 0.0, 3.13, 3.13, 3.13, 3.13, 3.13, 3.13, 3.13, 3.13, 3.13, 3.13, 3.13, 3.13, 3.13, 3.13, 3.13, 3.13, 3.13, 3.13, 2.68, 3.13, 3.13, 3.13, 3.13, 3.13, 3.13, 3.13, 3.13, 3.13, 2.68, 2.68, 2.68, 2.68, 2.68, 2.68, 2.68, 2.68, 2.68, 2.24, 2.24, 2.24, 2.24, 2.24, 1.79, 1.79, 1.79, 1.79, 1.79, 1.79, 1.34, 1.34, 1.34, 1.34, 1.34, 1.34, 1.34, 1.34, 0.89, 0.89, 0.89, 0.89, 0.89, 0.89, 0.89, 0.45, 0.45, 0.45, 0.45, 0.45, 0.45, 0.45, 0.45, 0.45, 0.45, 0.45, 0.45, 0.0, 0.0, 0.0, 0.45, 0.45, 0.45, 0.0, -0.45, -0.89, -0.45, 0.0, 0.45, 0.45, 0.45, 0.45, 0.45, 0.45, 0.45, 0.0, 0.0, 0.0, 0.0, 0.0, 3.58, 3.58, 3.58, 3.13, 3.13, 3.13, 3.13, 3.13, 3.13, 3.13, 3.13, 3.13, 3.13, 3.13, 3.13, 3.13, 3.13, 3.13, 3.13, 3.13, 3.13, 3.13, 3.13, 3.13, 3.13, 3.13, 3.13, 3.13, 2.68, 2.68, 2.68, 2.68, 2.68, 2.68, 2.68, 2.68, 2.68, 2.24, 2.24, 2.24, 2.24, 2.24, 1.79, 1.79, 1.79, 1.79, 1.79, 1.79, 1.34, 1.34, 1.34, 1.34, 1.34, 1.34, 1.34, 1.34, 0.89, 0.89, 0.89, 0.89, 0.89, 0.89, 0.89, 0.45, 0.45, 0.45, 0.45, 0.45, 0.45, 0.45, 0.45, 0.45, 0.45, 0.45, 0.0, 0.0, 0.0, 0.0, 0.0, 0.0, 0.0, 0.0, -0.45, -0.45, -0.45, 0.0, 0.45, 0.45, 0.45, 0.45, 0.45, 0.0, 0.0, 0.0, 0.0, 0.0, 0.0, 0.0, 3.58, 3.58, 3.58, 3.58, 3.13, 3.13, 3.13, 3.13, 3.13, 3.13, 3.13, 3.13, 3.13, 3.13, 3.13, 3.13, 3.13, 3.13, 3.13, 3.13, 3.13, 3.13, 3.13, 3.13, 3.13, 3.13, 3.13, 3.13, 3.13, 3.13, 3.13, 2.68, 2.68, 2.68, 2.68, 2.68, 2.68, 2.24, 2.24, 2.24, 2.24, 2.24, 1.79, 1.79, 1.79, 1.79, 1.79, 1.79, 1.34, 1.34, 1.34, 1.34, 1.34, 1.34, 1.34, 1.34, 0.89, 0.89, 0.89, 0.89, 0.89, 0.89, 0.89, 0.45, 0.45, 0.45, 0.45, 0.45, 0.45, 0.45, 0.45, 0.45, 0.45, 0.45, 0.0, 0.0, 0.45, 0.45, 0.0, 0.0, 0.0, 0.0, 0.0, 0.0, 0.0, 0.0, 0.45, 0.45, 0.45, 0.45, 0.0, 0.0, 0.0, 0.0, 0.0, 0.0, 0.0, 0.0, 3.58, 3.58, 3.58, 3.58, 3.58, 3.58, 3.13, 3.13, 3.13, 3.13, 3.13, 3.13, 3.13, 3.13, 3.13, 3.13, 3.13, 3.13, 3.13, 3.13, 3.13, 3.13, 3.13, 3.13, 3.13, 3.13, 3.13, 3.13, 3.13, 3.13, 3.13, 2.68, 2.68, 2.68, 2.68, 2.68, 2.68, 2.24, 2.24, 2.24, 2.24, 2.24, 1.79, 1.79, 1.79, 1.79, 1.79, 1.79, 1.34, 1.34, 1.34, 1.34, 1.34, 1.34, 1.34, 1.34, 0.89, 0.89, 0.89, 0.89, 0.89, 0.89, 0.89, 0.45, 0.45, 0.45, 0.45, 0.45, 0.45, 0.45, 0.45, 0.45, 0.45, 0.45, 0.0, 0.0, 0.45, 0.45, 0.0, 0.0, 0.0, 0.0, 0.0, 0.0, 0.0, 0.0, 0.0, 0.45, 0.45, 0.0, 0.0, 0.0, 0.0, 0.0, 0.0, 0.0, 0.0, 0.0, 3.58, 3.58, 3.58, 3.58, 3.58, 3.58, 3.58, 3.13, 3.13, 3.13, 3.13, 3.13, 3.13, 3.13, 3.13, 3.13, 3.13, 3.13, 3.13, 3.13, 3.13, 3.58, 3.13, 3.13, 3.13, 3.13, 3.13, 3.13, 3.13, 3.13, 3.13, 3.13, 2.68, 2.68, 2.68, 2.68, 2.68, 2.24, 2.24, 2.24, 2.24, 2.24, 2.24, 1.79, 1.79, 1.79, 1.79, 1.79, 1.79, 1.79, 1.79, 1.34, 1.34, 1.34, 1.34, 1.34, 0.89, 0.89, 0.89, 0.89, 0.89, 0.89, 0.45, 0.45, 0.45, 0.45, 0.45, 0.45, 0.45, 0.45, 0.45, 0.45, 0.45, 0.45, 0.45, 0.0, 0.0, 0.45, 0.0, 0.0, 0.0, 0.0, 0.0, 0.0, 0.0, 0.0, 0.0, 0.0, 0.0, 0.0, 0.0, 0.0, 0.0, 0.0, 0.0, 0.0, 0.0, 0.0, 3.58, 3.58, 3.58, 3.58, 3.58, 3.58, 3.58, 3.58, 3.13, 3.13, 3.13, 3.13, 3.58, 3.58, 3.58, 3.58, 3.58, 3.58, 3.58, 3.58, 3.58, 3.58, 3.58, 3.58, 3.58, 3.13, 3.13, 3.13, 3.13, 3.13, 3.13, 3.13, 2.68, 2.68, 2.68, 2.68, 2.68, 2.68, 2.24, 2.24, 2.24, 2.24, 2.24, 2.24, 1.79, 1.79, 1.79, 1.79, 1.79, 1.79, 1.79, 1.34, 1.34, 1.34, 1.34, 0.89, 0.89, 0.89, 0.89, 0.89, 0.89, 0.45, 0.45, 0.45, 0.45, 0.45, 0.45, 0.45, 0.45, 0.45, 0.45, 0.45, 0.45, 0.45, 0.45, 0.0, 0.0, 0.0, 0.0, 0.0, 0.0, 0.0, 0.0, 0.0, 0.0, 0.0, 0.0, 0.0, 0.0, 0.0, 0.0, 0.0, 0.0, 0.0, 0.0, 0.0, 0.0, 0.0, 3.58, 3.58, 3.58, 3.58, 3.58, 3.58, 3.58, 3.58, 3.58, 3.58, 3.58, 3.58, 3.58, 3.58, 3.58, 3.58, 3.58, 3.58, 3.58, 3.58, 3.58, 3.58, 3.58, 3.58, 3.58, 3.58, 3.13, 3.13, 3.13, 3.13, 3.13, 3.13, 3.13, 2.68, 2.68, 2.68, 2.68, 2.68, 2.68, 2.24, 2.24, 2.24, 2.24, 2.24, 1.79, 1.79, 1.79, 1.79, 1.79, 1.79, 1.34, 1.34, 1.34, 1.34, 1.34, 0.89, 0.89, 0.89, 0.89, 0.89, 0.89, 0.45, 0.45, 0.45, 0.45, 0.45, 0.45, 0.45, 0.45, 0.45, 0.45, 0.0, 0.0, 0.0, 0.0, 0.0, 0.0, 0.0, 0.0, 0.0, 0.45, 0.0, 0.0, 0.0, 0.0, 0.0, 0.0, 0.0, 0.0, 0.0, 0.0, 0.0, 0.0, 0.0, 0.0, 0.0, 0.0, 0.0, 3.58, 3.58, 3.58, 3.58, 3.58, 3.58, 3.58, 3.58, 3.58, 3.58, 3.58, 3.58, 3.58, 3.58, 3.58, 3.58, 3.58, 3.58, 3.58, 3.58, 3.58, 3.58, 3.58, 3.58, 3.58, 3.58, 3.58, 3.58, 3.13, 3.13, 3.13, 3.13, 3.13, 3.13, 2.68, 2.68, 2.68, 2.68, 2.68, 2.68, 2.24, 2.24, 2.24, 2.24, 1.79, 1.79, 1.79, 1.79, 1.79, 1.79, 1.34, 1.34, 1.34, 1.34, 1.34, 0.89, 0.89, 0.89, 0.89, 0.89, 0.89, 0.45, 0.45, 0.45, 0.45, 0.45, 0.45, 0.45, 0.45, 0.45, 0.45, 0.0, 0.0, 0.0, 0.0, 0.0, 0.0, 0.0, 0.0, 0.0, 0.45, 0.45, 0.45, 0.0, 0.0, 0.0, -0.45, -0.45, -0.45, 0.0, 0.0, 0.0, 0.0, 0.0, 0.0, 0.0, 0.0, 0.0, 4.02, 4.02, 4.02, 3.58, 3.58, 3.58, 3.58, 3.58, 3.58, 3.58, 3.58, 3.58, 3.58, 3.58, 3.58, 3.58, 3.58, 3.58, 3.58, 3.58, 3.58, 3.58, 3.58, 3.58, 3.58, 3.58, 3.58, 3.58, 3.58, 3.13, 3.13, 3.13, 3.13, 3.13, 3.13, 2.68, 2.68, 2.68, 2.68, 2.68, 2.24, 2.24, 2.24, 2.24, 1.79, 1.79, 1.79, 1.79, 1.79, 1.79, 1.34, 1.34, 1.34, 1.34, 1.34, 0.89, 0.89, 0.89, 0.89, 0.89, 0.45, 0.45, 0.45, 0.45, 0.45, 0.45, 0.45, 0.45, 0.45, 0.45, 0.0, 0.0, 0.0, 0.0, 0.0, 0.0, 0.0, 0.0, 0.0, 0.0, 0.0, 0.45, 0.45, 0.45, 0.0, 0.0, -0.45, -0.89, -0.45, 0.0, 0.0, 0.0, 0.45, 0.45, 0.0, 0.0, 0.0, 0.0, 4.02, 4.02, 4.02, 4.02, 4.02, 4.02, 3.58, 3.58, 4.02, 4.02, 4.02, 4.02, 4.02, 4.02, 4.02, 4.02, 4.02, 4.02, 4.02, 4.02, 4.02, 4.02, 4.02, 3.58, 3.58, 3.58, 3.58, 3.58, 3.58, 3.58, 3.58, 3.13, 3.13, 3.13, 3.13, 2.68, 2.68, 2.68, 2.68, 2.68, 2.24, 2.24, 2.24, 2.24, 2.24, 1.79, 1.79, 1.79, 1.79, 1.79, 1.34, 1.34, 1.34, 1.34, 1.34, 0.89, 0.89, 0.89, 0.89, 0.89, 0.45, 0.45, 0.45, 0.45, 0.45, 0.45, 0.45, 0.45, 0.45, 0.45, 0.45, 0.0, 0.0, 0.0, 0.0, 0.0, 0.0, 0.45, 0.45, 0.0, 0.0, 0.0, 0.45, 0.45, 0.0, 0.0, -0.45, -0.45, -0.45, 0.0, 0.0, 0.0, 0.45, 0.45, 0.0, 0.0, 0.0, 0.0, 4.02, 4.02, 4.02, 4.02, 4.02, 4.02, 4.02, 4.02, 4.02, 4.02, 4.02, 4.02, 4.02, 4.02, 4.02, 4.02, 4.02, 4.02, 4.02, 4.02, 4.02, 4.02, 4.02, 4.02, 4.02, 3.58, 3.58, 3.58, 3.58, 3.58, 3.58, 3.13, 3.13, 3.13, 3.13, 3.13, 2.68, 2.68, 2.68, 2.68, 2.24, 2.24, 2.24, 2.24, 2.24, 2.24, 1.79, 1.79, 1.79, 1.79, 1.34, 1.34, 1.34, 1.34, 1.34, 0.89, 0.89, 0.89, 0.89, 0.89, 0.45, 0.45, 0.45, 0.45, 0.45, 0.45, 0.45, 0.45, 0.45, 0.45, 0.45, 0.0, 0.0, 0.0, 0.0, 0.0, 0.0, 0.0, 0.45, 0.45, 0.0, 0.0, 0.45, 0.0, 0.0, 0.0, -0.45, -0.45, -0.45, 0.0, 0.0, 0.0, 0.0, 0.0, 0.0, 0.0, 0.0, 0.0, 4.02, 4.02, 4.02, 4.02, 4.02, 4.02, 4.02, 4.02, 4.02, 4.02, 4.02, 4.02, 4.02, 4.02, 4.02, 4.02, 4.02, 4.02, 4.02, 4.02, 4.02, 4.02, 4.02, 4.02, 4.02, 4.02, 3.58, 3.58, 3.58, 3.58, 3.58, 3.58, 3.13, 3.13, 3.13, 3.13, 2.68, 2.68, 2.68, 2.68, 2.24, 2.24, 2.24, 2.24, 2.24, 2.24, 1.79, 1.79, 1.79, 1.79, 1.34, 1.34, 1.34, 1.34, 1.34, 0.89, 0.89, 0.89, 0.89, 0.89, 0.89, 0.45, 0.45, 0.45, 0.45, 0.45, 0.45, 0.45, 0.45, 0.45, 0.45, 0.0, 0.0, 0.0, 0.0, 0.0, 0.0, 0.0, 0.45, 0.45, 0.45, 0.0, 0.0, 0.0, 0.0, 0.0, 0.0, -0.45, 0.0, 0.0, 0.0, 0.0, 0.0, 0.0, 0.0, 0.0, 0.0, 0.0, 4.02, 4.02, 4.02, 4.02, 4.02, 4.47, 4.47, 4.02, 4.02, 4.02, 4.02, 4.02, 4.02, 4.02, 4.02, 4.02, 4.02, 4.02, 4.02, 4.02, 4.02, 4.02, 4.02, 4.02, 4.02, 4.02, 4.02, 3.58, 3.58, 3.58, 3.58, 3.58, 3.13, 3.13, 3.13, 3.13, 2.68, 2.68, 2.68, 2.68, 2.68, 2.24, 2.24, 2.24, 2.24, 2.24, 1.79, 1.79, 1.79, 1.79, 1.34, 1.34, 1.34, 1.34, 1.34, 0.89, 0.89, 0.89, 0.89, 0.89, 0.89, 0.89, 0.45, 0.45, 0.45, 0.45, 0.45, 0.45, 0.45, 0.45, 0.45, 0.0, 0.0, 0.0, 0.0, 0.0, 0.0, 0.0, 0.0, 0.45, 0.45, 0.45, 0.0, 0.0, 0.0, 0.0, -0.45, -0.45, 0.0, 0.0, 0.0, 0.0, 0.0, 0.0, 0.0, 0.0, 0.0, 0.0, 4.47, 4.47, 4.47, 4.47, 4.47, 4.47, 4.47, 4.47, 4.47, 4.47, 4.47, 4.47, 4.47, 4.47, 4.47, 4.47, 4.47, 4.47, 4.47, 4.47, 4.02, 4.02, 4.02, 4.02, 4.02, 4.02, 4.02, 3.58, 3.58, 3.58, 3.58, 3.58, 3.13, 3.13, 3.13, 3.13, 2.68, 2.68, 2.68, 2.68, 2.68, 2.24, 2.24, 2.24, 2.24, 2.24, 1.79, 1.79, 1.79, 1.79, 1.79, 1.34, 1.34, 1.34, 1.34, 0.89, 0.89, 0.89, 0.89, 0.89, 0.89, 0.89, 0.45, 0.45, 0.45, 0.45, 0.45, 0.45, 0.45, 0.45, 0.45, 0.0, 0.0, 0.0, 0.0, 0.0, 0.0, 0.0, 0.0, 0.0, 0.45, 0.45, 0.45, 0.0, 0.0, -0.45, -0.45, -0.45, 0.0, 0.0, 0.0, 0.0, 0.0, 0.0, 0.0, 0.0, 0.0, 0.0, 4.47, 4.47, 4.47, 4.47, 4.47, 4.47, 4.47, 4.47, 4.47, 4.47, 4.47, 4.47, 4.47, 4.47, 4.47, 4.47, 4.47, 4.47, 4.47, 4.47, 4.47, 4.02, 4.02, 4.02, 4.02, 4.02, 4.02, 3.58, 3.58, 3.58, 3.58, 3.58, 3.13, 3.13, 3.13, 3.13, 3.13, 2.68, 2.68, 2.68, 2.68, 2.24, 2.24, 2.24, 2.24, 2.24, 2.24, 1.79, 1.79, 1.79, 1.79, 1.79, 1.34, 1.34, 1.34, 1.34, 0.89, 0.89, 0.89, 0.89, 0.89, 0.89, 0.89, 0.45, 0.45, 0.45, 0.45, 0.45, 0.45, 0.45, 0.0, 0.0, 0.0, 0.0, 0.0, 0.0, 0.0, 0.0, 0.0, 0.0, 0.0, 0.45, 0.45, 0.45, 0.0, -0.45, -0.45, -0.45, 0.0, 0.0, 0.0, 0.0, 0.0, 0.0, 0.0, 0.0, 0.0, 0.0, 4.47, 4.47, 4.47, 4.47, 4.47, 4.47, 4.47, 4.47, 4.47, 4.47, 4.47, 4.47, 4.47, 4.47, 4.47, 4.47, 4.47, 4.47, 4.47, 4.47, 4.47, 4.02, 4.02, 4.02, 4.02, 4.02, 3.58, 3.58, 3.58, 3.58, 3.58, 3.58, 3.13, 3.13, 3.13, 3.13, 3.13, 2.68, 2.68, 2.68, 2.68, 2.68, 2.24, 2.24, 2.24, 2.24, 2.24, 1.79, 1.79, 1.79, 1.79, 1.79, 1.34, 1.34, 1.34, 1.34, 1.34, 0.89, 0.89, 0.89, 0.89, 0.89, 0.89, 0.45, 0.45, 0.45, 0.45, 0.45, 0.45, 0.45, 0.0, 0.0, 0.0, 0.0, 0.0, 0.0, 0.0, 0.0, 0.0, 0.0, 0.0, 0.0, 0.0, 0.45, 0.0, 0.0, -0.45, -0.45, -0.45, -0.45, 0.0, 0.0, 0.0, 0.0, 0.0, 0.0, 0.0, 0.0, 4.47, 4.92, 4.92, 4.47, 4.47, 4.47, 4.47, 4.47, 4.47, 4.47, 4.47, 4.47, 4.47, 4.47, 4.47, 4.47, 4.47, 4.47, 4.47, 4.47, 4.47, 4.02, 4.02, 4.02, 4.02, 4.02, 3.58, 3.58, 3.58, 3.58, 3.58, 3.58, 3.13, 3.13, 3.13, 3.13, 3.13, 3.13, 2.68, 2.68, 2.68, 2.68, 2.68, 2.24, 2.24, 2.24, 2.24, 2.24, 1.79, 1.79, 1.79, 1.79, 1.79, 1.34, 1.34, 1.34, 1.34, 0.89, 0.89, 0.89, 0.89, 0.89, 0.89, 0.45, 0.45, 0.45, 0.45, 0.45, 0.0, 0.0, 0.0, 0.0, 0.0, 0.0, 0.0, 0.0, 0.0, 0.0, 0.0, -0.45, -0.45, -0.45, 0.0, 0.0, 0.45, 0.0, -0.45, -0.45, -0.45, -0.45, -0.45, 0.0, 0.0, 0.0, 0.0, 0.0, 0.0, 0.0, 4.92, 4.92, 4.92, 4.92, 4.92, 4.47, 4.47, 4.47, 4.47, 4.47, 4.47, 4.47, 4.47, 4.47, 4.47, 4.47, 4.47, 4.47, 4.47, 4.47, 4.47, 4.02, 4.02, 4.02, 4.02, 3.58, 3.58, 3.58, 3.58, 3.58, 3.58, 3.58, 3.13, 3.13, 3.13, 3.13, 3.13, 3.13, 2.68, 2.68, 2.68, 2.68, 2.68, 2.68, 2.24, 2.24, 2.24, 2.24, 2.24, 1.79, 1.79, 1.79, 1.79, 1.34, 1.34, 1.34, 1.34, 1.34, 0.89, 0.89, 0.89, 0.89, 0.45, 0.45, 0.45, 0.45, 0.45, 0.0, 0.0, 0.0, 0.0, 0.0, 0.0, 0.0, 0.0, 0.0, 0.0, 0.0, 0.0, -0.45, -0.45, -0.45, -0.45, 0.0, 0.45, 0.0, 0.0, -0.45, -0.45, -0.45, -0.89, -0.45, -0.45, 0.0, 0.0, 0.0, 0.0, 0.0, 4.92, 4.92, 4.92, 4.92, 4.92, 4.92, 4.92, 4.92, 4.47, 4.47, 4.47, 4.47, 4.47, 4.47, 4.47, 4.47, 4.47, 4.47, 4.47, 4.47, 4.47, 4.02, 4.02, 4.02, 4.02, 3.58, 3.58, 3.58, 3.58, 3.58, 3.58, 3.58, 3.58, 3.13, 3.13, 3.13, 3.13, 3.13, 3.13, 2.68, 2.68, 2.68, 2.68, 2.68, 2.68, 2.24, 2.24, 2.24, 2.24, 2.24, 1.79, 1.79, 1.79, 1.79, 1.34, 1.34, 1.34, 1.34, 0.89, 0.89, 0.89, 0.89, 0.45, 0.45, 0.45, 0.45, 0.45, 0.0, 0.0, 0.0, 0.0, 0.0, 0.0, 0.0, 0.0, 0.0, 0.0, 0.0, 0.0, -0.45, -0.45, -0.45, -0.45, 0.0, 0.0, 0.0, 0.0, 0.0, -0.45, -0.45, -0.89, -0.89, -0.45, -0.45, 0.0, 0.0, 0.0, 0.0, 4.92, 4.92, 4.92, 4.92, 4.92, 4.92, 4.92, 4.92, 4.92, 4.92, 4.92, 4.92, 4.47, 4.47, 4.47, 4.47, 4.47, 4.47, 4.47, 4.47, 4.02, 4.02, 4.02, 4.02, 3.58, 3.58, 3.58, 3.58, 3.58, 3.58, 3.58, 3.58, 3.58, 3.13, 3.13, 3.13, 3.13, 3.13, 3.13, 3.13, 2.68, 2.68, 2.68, 2.68, 2.68, 2.68, 2.24, 2.24, 2.24, 2.24, 2.24, 1.79, 1.79, 1.79, 1.34, 1.34, 1.34, 1.34, 0.89, 0.89, 0.89, 0.89, 0.45, 0.45, 0.45, 0.45, 0.45, 0.0, 0.0, 0.0, 0.0, 0.0, 0.0, 0.0, 0.0, 0.0, 0.0, 0.0, 0.0, -0.45, -0.45, -0.45, -0.45, 0.0, 0.0, 0.0, 0.0, 0.0, 0.0, -0.45, -0.45, -0.89, -0.89, -0.45, -0.45, 0.0, 0.0, 0.0, 4.92, 4.92, 4.92, 4.92, 4.92, 4.92, 4.92, 4.92, 4.92, 4.92, 4.92, 4.92, 4.47, 4.47, 4.47, 4.47, 4.47, 4.47, 4.47, 4.02, 4.02, 4.02, 4.02, 4.02, 3.58, 3.58, 3.58, 3.58, 3.58, 3.58, 3.58, 3.58, 3.58, 3.58, 3.13, 3.13, 3.13, 3.13, 3.13, 3.13, 3.13, 2.68, 2.68, 2.68, 2.68, 2.68, 2.68, 2.24, 2.24, 2.24, 2.24, 1.79, 1.79, 1.79, 1.79, 1.34, 1.34, 1.34, 1.34, 0.89, 0.89, 0.89, 0.45, 0.45, 0.45, 0.45, 0.45, 0.0, 0.0, 0.0, 0.0, 0.0, 0.0, 0.0, 0.0, 0.0, 0.0, 0.0, -0.45, -0.45, -0.45, -0.45, -0.45, -0.45, 0.0, 0.0, 0.0, 0.0, -0.45, -0.45, -0.45, -0.45, -0.45, -0.45, -0.45, -0.45, -0.45, -0.45, 4.92, 4.92, 4.92, 4.92, 4.92, 4.92, 4.92, 4.92, 4.92, 4.92, 4.92, 4.92, 4.47, 4.47, 4.47, 4.47, 4.47, 4.47, 4.47, 4.02, 4.02, 4.02, 4.02, 4.02, 3.58, 3.58, 3.58, 3.58, 3.58, 3.58, 3.58, 3.58, 3.58, 3.58, 3.13, 3.13, 3.13, 3.13, 3.13, 3.13, 3.13, 3.13, 3.13, 2.68, 2.68, 2.68, 2.68, 2.68, 2.24, 2.24, 2.24, 2.24, 1.79, 1.79, 1.79, 1.34, 1.34, 1.34, 1.34, 0.89, 0.89, 0.89, 0.45, 0.45, 0.45, 0.45, 0.45, 0.0, 0.0, 0.0, 0.0, 0.0, 0.0, 0.0, 0.0, 0.0, 0.0, 0.0, 0.0, -0.45, -0.45, -0.45, -0.45, -0.45, 0.0, 0.0, 0.0, -0.45, -0.45, -0.45, -0.45, -0.45, -0.45, -0.45, -0.45, -0.45, -0.45, -0.45, 4.92, 4.92, 4.92, 4.92, 4.92, 4.92, 4.92, 4.92, 4.92, 4.92, 4.92, 4.47, 4.47, 4.47, 4.47, 4.47, 4.47, 4.47, 4.02, 4.02, 4.02, 4.02, 4.02, 4.02, 3.58, 3.58, 3.58, 3.58, 3.58, 3.58, 3.58, 3.58, 3.58, 3.58, 3.58, 3.58, 3.13, 3.13, 3.13, 3.13, 3.13, 3.13, 3.13, 3.13, 2.68, 2.68, 2.68, 2.68, 2.68, 2.24, 2.24, 2.24, 1.79, 1.79, 1.79, 1.79, 1.34, 1.34, 1.34, 0.89, 0.89, 0.89, 0.89, 0.45, 0.45, 0.45, 0.45, 0.0, 0.0, 0.0, 0.0, 0.0, 0.0, 0.0, 0.0, 0.0, 0.0, 0.0, 0.0, 0.0, -0.45, -0.45, -0.45, -0.45, 0.0, 0.0, -0.45, -0.45, -0.45, -0.45, -0.45, -0.45, -0.45, -0.45, -0.45, -0.45, -0.45, -0.45, 4.92, 4.92, 4.92, 4.92, 4.92, 4.92, 4.92, 4.92, 4.92, 4.92, 4.47, 4.47, 4.47, 4.47, 4.47, 4.47, 4.47, 4.02, 4.02, 4.02, 4.02, 4.02, 4.02, 3.58, 3.58, 3.58, 3.58, 3.58, 3.58, 3.58, 3.58, 3.58, 3.58, 3.58, 3.58, 3.58, 3.58, 3.13, 3.13, 3.13, 3.13, 3.13, 3.13, 3.13, 2.68, 2.68, 2.68, 2.68, 2.68, 2.24, 2.24, 2.24, 1.79, 1.79, 1.79, 1.79, 1.34, 1.34, 1.34, 0.89, 0.89, 0.89, 0.89, 0.45, 0.45, 0.45, 0.45, 0.0, 0.0, 0.0, 0.0, 0.0, 0.0, 0.0, 0.0, 0.0, 0.0, 0.0, 0.0, -0.45, -0.45, -0.45, -0.45, -0.45, 0.0, 0.0, -0.45, -0.89, -0.89, -0.45, -0.45, -0.45, -0.45, -0.45, -0.45, -0.45, -0.45, -0.45, 4.92, 4.92, 4.92, 4.92, 4.92, 4.92, 4.92, 4.92, 4.92, 4.47, 4.47, 4.47, 4.47, 4.47, 4.47, 4.47, 4.02, 4.02, 4.02, 4.02, 4.02, 4.02, 4.02, 3.58, 3.58, 3.58, 3.58, 3.58, 3.58, 3.58, 3.58, 3.58, 3.58, 3.58, 3.58, 3.58, 3.58, 3.58, 3.13, 3.13, 3.13, 3.13, 3.13, 3.13, 3.13, 2.68, 2.68, 2.68, 2.68, 2.24, 2.24, 2.24, 1.79, 1.79, 1.79, 1.79, 1.34, 1.34, 1.34, 0.89, 0.89, 0.89, 0.89, 0.45, 0.45, 0.45, 0.45, 0.0, 0.0, 0.0, 0.0, 0.0, 0.0, 0.0, 0.0, 0.0, 0.0, 0.0, -0.45, -0.45, -0.45, -0.45, -0.45, -0.45, -0.45, 0.0, 0.0, -0.45, -0.89, -0.89, -0.45, -0.45, -0.45, -0.45, -0.45, -0.45, -0.45, -0.45, 4.92, 4.92, 4.92, 4.92, 4.92, 4.92, 4.92, 4.92, 4.47, 4.47, 4.47, 4.47, 4.47, 4.47, 4.47, 4.02, 4.02, 4.02, 4.02, 4.02, 4.02, 4.02, 4.02, 3.58, 3.58, 3.58, 3.58, 3.58, 3.58, 3.58, 3.58, 3.58, 3.58, 3.58, 3.58, 3.58, 3.58, 3.58, 3.13, 3.13, 3.13, 3.13, 3.13, 3.13, 3.13, 2.68, 2.68, 2.68, 2.68, 2.24, 2.24, 2.24, 1.79, 1.79, 1.79, 1.79, 1.34, 1.34, 1.34, 1.34, 0.89, 0.89, 0.89, 0.45, 0.45, 0.45, 0.45, 0.0, 0.0, 0.0, 0.0, 0.0, 0.0, 0.0, 0.0, 0.0, 0.0, 0.0, -0.45, -0.45, -0.45, -0.45, -0.45, -0.45, -0.45, 0.0, 0.0, -0.45, -0.89, -0.89, -0.89, -0.45, -0.45, -0.45, -0.45, -0.45, -0.45, -0.45, 4.92, 4.92, 4.92, 4.92, 4.92, 4.92, 4.92, 4.47, 4.47, 4.47, 4.47, 4.47, 4.47, 4.47, 4.47, 4.02, 4.02, 4.02, 4.02, 4.02, 4.02, 4.02, 3.58, 3.58, 3.58, 3.58, 3.58, 3.58, 3.58, 3.58, 3.58, 3.58, 3.58, 3.58, 3.58, 3.58, 3.58, 3.58, 3.13, 3.13, 3.13, 3.13, 3.13, 3.13, 2.68, 2.68, 2.68, 2.68, 2.68, 2.24, 2.24, 2.24, 1.79, 1.79, 1.79, 1.79, 1.34, 1.34, 1.34, 1.34, 0.89, 0.89, 0.89, 0.45, 0.45, 0.45, 0.45, 0.0, 0.0, 0.0, 0.0, 0.0, 0.0, 0.0, 0.0, 0.0, 0.0, -0.45, -0.45, -0.45, 0.0, -0.45, -0.45, -0.45, -0.45, -0.45, 0.0, 0.0, -0.45, -0.89, -0.89, -0.89, -0.89, -0.45, -0.45, 0.0, 0.0, 0.0, 4.92, 4.92, 4.92, 4.92, 4.92, 4.92, 4.92, 4.47, 4.47, 4.47, 4.47, 4.47, 4.47, 4.47, 4.47, 4.02, 4.02, 4.02, 4.02, 4.02, 4.02, 4.02, 3.58, 3.58, 3.58, 3.58, 3.58, 3.58, 3.58, 3.58, 3.58, 3.58, 3.58, 3.58, 3.58, 3.58, 3.58, 3.58, 3.13, 3.13, 3.13, 3.13, 3.13, 3.13, 2.68, 2.68, 2.68, 2.68, 2.68, 2.24, 2.24, 2.24, 1.79, 1.79, 1.79, 1.79, 1.34, 1.34, 1.34, 1.34, 0.89, 0.89, 0.89, 0.45, 0.45, 0.45, 0.45, 0.0, 0.0, 0.0, 0.0, 0.0, 0.0, 0.0, 0.0, 0.0, 0.0, -0.45, -0.45, -0.45, 0.0, -0.45, -0.45, -0.45, -0.45, -0.45, 0.0, 0.0, 0.0, -0.89, -1.34, -1.34, -1.34, -0.89, -0.45, 0.0, 0.0, 0.0]}]